Wetterdaten: Mittwoch, 01.07.2020
Datum Zeit Temp. Aussen Temp. o. S. Temp +5cm Feuchte Auss Luftdruck Regen Sonnenschein Regendauer Solar Windben Empfang
01.07.2020 00:00 19,1 C 17,8 C 17,8 C 82 % 1008,7 hPa 0,0 l/m 0 min 0 min 0 W/m 19,3 km/h (3 Bft) 100,00 %
01.07.2020 00:02 19,1 C 17,8 C 17,8 C 83 % 1008,7 hPa 0,0 l/m 0 min 0 min 0 W/m 16,1 km/h (3 Bft) 100,00 %
01.07.2020 00:04 19,1 C 17,8 C 17,8 C 83 % 1008,7 hPa 0,0 l/m 0 min 0 min 0 W/m 25,7 km/h (4 Bft) 100,00 %
01.07.2020 00:07 19,0 C 17,8 C 17,8 C 83 % 1008,7 hPa 0,0 l/m 0 min 0 min 0 W/m 19,3 km/h (3 Bft) 100,00 %
01.07.2020 00:08 19,0 C 17,8 C 17,8 C 83 % 1008,7 hPa 0,0 l/m 0 min 0 min 0 W/m 12,9 km/h (3 Bft) 100,00 %
01.07.2020 00:10 19,0 C 17,8 C 17,8 C 83 % 1008,6 hPa 0,0 l/m 0 min 0 min 0 W/m 12,9 km/h (3 Bft) 100,00 %
01.07.2020 00:12 18,9 C 17,8 C 17,8 C 83 % 1008,6 hPa 0,0 l/m 0 min 0 min 0 W/m 9,7 km/h (2 Bft) 97,87 %
01.07.2020 00:14 18,9 C 17,8 C 17,8 C 83 % 1008,6 hPa 0,0 l/m 0 min 0 min 0 W/m 16,1 km/h (3 Bft) 100,00 %
01.07.2020 00:16 18,9 C 17,8 C 17,8 C 83 % 1008,6 hPa 0,0 l/m 0 min 0 min 0 W/m 6,4 km/h (2 Bft) 100,00 %
01.07.2020 00:18 18,9 C 17,8 C 17,8 C 84 % 1008,6 hPa 0,0 l/m 0 min 0 min 0 W/m 16,1 km/h (3 Bft) 100,00 %
01.07.2020 00:20 18,9 C 17,8 C 17,2 C 84 % 1008,6 hPa 0,0 l/m 0 min 0 min 0 W/m 16,1 km/h (3 Bft) 100,00 %
01.07.2020 00:22 18,9 C 17,8 C 17,2 C 84 % 1008,5 hPa 0,0 l/m 0 min 0 min 0 W/m 22,5 km/h (4 Bft) 100,00 %
01.07.2020 00:24 18,8 C 17,8 C 17,2 C 84 % 1008,5 hPa 0,0 l/m 0 min 0 min 0 W/m 19,3 km/h (3 Bft) 100,00 %
01.07.2020 00:26 18,8 C 17,8 C 17,2 C 84 % 1008,5 hPa 0,0 l/m 0 min 0 min 0 W/m 6,4 km/h (2 Bft) 100,00 %
01.07.2020 00:28 18,8 C 17,8 C 17,2 C 84 % 1008,5 hPa 0,0 l/m 0 min 0 min 0 W/m 19,3 km/h (3 Bft) 100,00 %
01.07.2020 00:30 18,8 C 17,8 C 17,2 C 84 % 1008,5 hPa 0,0 l/m 0 min 0 min 0 W/m 12,9 km/h (3 Bft) 100,00 %
01.07.2020 00:32 18,8 C 17,8 C 17,2 C 84 % 1008,4 hPa 0,0 l/m 0 min 0 min 0 W/m 16,1 km/h (3 Bft) 100,00 %
01.07.2020 00:34 18,8 C 17,8 C 17,2 C 84 % 1008,5 hPa 0,0 l/m 0 min 0 min 0 W/m 19,3 km/h (3 Bft) 97,87 %
01.07.2020 00:36 18,8 C 17,8 C 17,8 C 84 % 1008,4 hPa 0,0 l/m 0 min 0 min 0 W/m 19,3 km/h (3 Bft) 100,00 %
01.07.2020 00:38 18,8 C 17,8 C 17,8 C 84 % 1008,4 hPa 0,0 l/m 0 min 0 min 0 W/m 22,5 km/h (4 Bft) 100,00 %
01.07.2020 00:40 18,8 C 17,8 C 17,8 C 84 % 1008,4 hPa 0,0 l/m 0 min 0 min 0 W/m 19,3 km/h (3 Bft) 97,87 %
01.07.2020 00:42 18,8 C 18,3 C 17,8 C 84 % 1008,4 hPa 0,0 l/m 0 min 0 min 0 W/m 25,7 km/h (4 Bft) 100,00 %
01.07.2020 00:44 18,8 C 18,3 C 17,8 C 84 % 1008,4 hPa 0,0 l/m 0 min 0 min 0 W/m 19,3 km/h (3 Bft) 97,87 %
01.07.2020 00:46 18,8 C 18,3 C 17,8 C 84 % 1008,3 hPa 0,0 l/m 0 min 0 min 0 W/m 22,5 km/h (4 Bft) 91,49 %
01.07.2020 00:48 18,8 C 18,3 C 17,8 C 84 % 1008,4 hPa 0,0 l/m 0 min 0 min 0 W/m 19,3 km/h (3 Bft) 95,65 %
01.07.2020 00:50 18,8 C 18,3 C 17,8 C 83 % 1008,4 hPa 0,0 l/m 0 min 0 min 0 W/m 25,7 km/h (4 Bft) 95,74 %
01.07.2020 00:52 18,8 C 18,3 C 17,8 C 83 % 1008,4 hPa 0,0 l/m 0 min 0 min 0 W/m 25,7 km/h (4 Bft) 97,87 %
01.07.2020 00:54 18,8 C 18,3 C 17,8 C 83 % 1008,4 hPa 0,0 l/m 0 min 0 min 0 W/m 12,9 km/h (3 Bft) 97,87 %
01.07.2020 00:56 18,9 C 18,3 C 17,8 C 83 % 1008,4 hPa 0,0 l/m 0 min 0 min 0 W/m 19,3 km/h (3 Bft) 97,87 %
01.07.2020 00:58 18,9 C 18,3 C 17,8 C 83 % 1008,4 hPa 0,0 l/m 0 min 0 min 0 W/m 16,1 km/h (3 Bft) 100,00 %
01.07.2020 01:00 18,9 C 18,3 C 17,8 C 83 % 1008,4 hPa 0,0 l/m 0 min 0 min 0 W/m 9,7 km/h (2 Bft) 97,87 %
01.07.2020 01:02 18,9 C 18,3 C 17,8 C 83 % 1008,5 hPa 0,0 l/m 0 min 0 min 0 W/m 6,4 km/h (2 Bft) 97,87 %
01.07.2020 01:04 18,9 C 18,3 C 17,8 C 83 % 1008,4 hPa 0,0 l/m 0 min 0 min 0 W/m 22,5 km/h (4 Bft) 97,87 %
01.07.2020 01:06 19,0 C 18,3 C 17,8 C 83 % 1008,5 hPa 0,0 l/m 0 min 0 min 0 W/m 29,0 km/h (5 Bft) 93,62 %
01.07.2020 01:08 19,0 C 18,3 C 17,8 C 83 % 1008,4 hPa 0,0 l/m 0 min 0 min 0 W/m 9,7 km/h (2 Bft) 97,87 %
01.07.2020 01:10 19,1 C 18,3 C 17,8 C 83 % 1008,4 hPa 0,0 l/m 0 min 0 min 0 W/m 16,1 km/h (3 Bft) 95,65 %
01.07.2020 01:12 19,1 C 18,3 C 17,8 C 83 % 1008,4 hPa 0,0 l/m 0 min 0 min 0 W/m 25,7 km/h (4 Bft) 97,87 %
01.07.2020 01:14 19,1 C 18,3 C 17,8 C 83 % 1008,3 hPa 0,0 l/m 0 min 0 min 0 W/m 19,3 km/h (3 Bft) 97,87 %
01.07.2020 01:16 19,1 C 18,3 C 17,8 C 83 % 1008,3 hPa 0,0 l/m 0 min 0 min 0 W/m 19,3 km/h (3 Bft) 95,74 %
01.07.2020 01:18 19,1 C 18,3 C 17,8 C 83 % 1008,3 hPa 0,0 l/m 0 min 0 min 0 W/m 19,3 km/h (3 Bft) 95,74 %
01.07.2020 01:20 19,1 C 18,3 C 17,8 C 83 % 1008,3 hPa 0,0 l/m 0 min 0 min 0 W/m 6,4 km/h (2 Bft) 97,87 %
01.07.2020 01:22 19,1 C 18,3 C 17,8 C 83 % 1008,2 hPa 0,0 l/m 0 min 0 min 0 W/m 6,4 km/h (2 Bft) 97,87 %
01.07.2020 01:24 19,1 C 18,3 C 17,8 C 83 % 1008,3 hPa 0,0 l/m 0 min 0 min 0 W/m 22,5 km/h (4 Bft) 93,48 %
01.07.2020 01:26 19,1 C 18,3 C 17,8 C 83 % 1008,2 hPa 0,0 l/m 0 min 0 min 0 W/m 9,7 km/h (2 Bft) 95,74 %
01.07.2020 01:28 19,1 C 18,3 C 17,8 C 83 % 1008,2 hPa 0,0 l/m 0 min 0 min 0 W/m 9,7 km/h (2 Bft) 95,74 %
01.07.2020 01:30 19,1 C 18,3 C 17,8 C 83 % 1008,2 hPa 0,0 l/m 0 min 0 min 0 W/m 16,1 km/h (3 Bft) 100,00 %
01.07.2020 01:32 19,1 C 18,3 C 17,8 C 83 % 1008,2 hPa 0,0 l/m 0 min 0 min 0 W/m 12,9 km/h (3 Bft) 97,87 %
01.07.2020 01:34 19,1 C 18,3 C 17,8 C 83 % 1008,2 hPa 0,0 l/m 0 min 0 min 0 W/m 16,1 km/h (3 Bft) 97,83 %
01.07.2020 01:36 19,1 C 18,3 C 17,8 C 83 % 1008,3 hPa 0,0 l/m 0 min 0 min 0 W/m 3,2 km/h (1 Bft) 95,74 %
01.07.2020 01:38 19,1 C 18,3 C 17,8 C 83 % 1008,3 hPa 0,0 l/m 0 min 0 min 0 W/m 6,4 km/h (2 Bft) 93,62 %
01.07.2020 01:40 19,1 C 18,3 C 17,8 C 83 % 1008,3 hPa 0,0 l/m 0 min 0 min 0 W/m 12,9 km/h (3 Bft) 97,87 %
01.07.2020 01:42 19,1 C 18,3 C 17,8 C 83 % 1008,3 hPa 0,0 l/m 0 min 0 min 0 W/m 19,3 km/h (3 Bft) 97,87 %
01.07.2020 01:44 19,1 C 18,3 C 17,8 C 83 % 1008,2 hPa 0,0 l/m 0 min 0 min 0 W/m 19,3 km/h (3 Bft) 95,74 %
01.07.2020 01:46 19,2 C 18,3 C 17,8 C 83 % 1008,2 hPa 0,0 l/m 0 min 0 min 0 W/m 16,1 km/h (3 Bft) 95,65 %
01.07.2020 01:48 19,2 C 18,3 C 17,8 C 83 % 1008,1 hPa 0,0 l/m 0 min 0 min 0 W/m 16,1 km/h (3 Bft) 93,62 %
01.07.2020 01:50 19,2 C 18,3 C 17,8 C 83 % 1008,1 hPa 0,0 l/m 0 min 0 min 0 W/m 12,9 km/h (3 Bft) 95,74 %
01.07.2020 01:52 19,2 C 18,3 C 17,8 C 83 % 1008,1 hPa 0,0 l/m 0 min 0 min 0 W/m 3,2 km/h (1 Bft) 95,74 %
01.07.2020 01:54 19,2 C 18,3 C 17,8 C 82 % 1008,1 hPa 0,0 l/m 0 min 0 min 0 W/m 12,9 km/h (3 Bft) 93,62 %
01.07.2020 01:56 19,2 C 18,3 C 17,8 C 82 % 1008,1 hPa 0,0 l/m 0 min 0 min 0 W/m 12,9 km/h (3 Bft) 95,74 %
01.07.2020 01:58 19,2 C 18,3 C 17,8 C 82 % 1008,1 hPa 0,0 l/m 0 min 0 min 0 W/m 12,9 km/h (3 Bft) 95,65 %
01.07.2020 02:00 19,2 C 18,3 C 17,8 C 82 % 1008,0 hPa 0,0 l/m 0 min 0 min 0 W/m 6,4 km/h (2 Bft) 95,74 %
01.07.2020 02:02 19,2 C 18,3 C 17,8 C 82 % 1008,1 hPa 0,0 l/m 0 min 0 min 0 W/m 6,4 km/h (2 Bft) 95,74 %
01.07.2020 02:04 19,2 C 18,3 C 17,8 C 82 % 1008,0 hPa 0,0 l/m 0 min 0 min 0 W/m 3,2 km/h (1 Bft) 93,62 %
01.07.2020 02:06 19,2 C 18,3 C 17,8 C 82 % 1008,0 hPa 0,0 l/m 0 min 0 min 0 W/m 6,4 km/h (2 Bft) 95,74 %
01.07.2020 02:08 19,2 C 18,3 C 17,8 C 82 % 1007,9 hPa 0,0 l/m 0 min 0 min 0 W/m 12,9 km/h (3 Bft) 95,74 %
01.07.2020 02:10 19,2 C 18,3 C 17,8 C 82 % 1007,9 hPa 0,0 l/m 0 min 0 min 0 W/m 6,4 km/h (2 Bft) 91,30 %
01.07.2020 02:12 19,2 C 18,3 C 17,8 C 82 % 1008,0 hPa 0,0 l/m 0 min 0 min 0 W/m 3,2 km/h (1 Bft) 93,62 %
01.07.2020 02:14 19,2 C 18,3 C 17,8 C 82 % 1007,9 hPa 0,0 l/m 0 min 0 min 0 W/m 0,0 km/h (0 Bft) 93,62 %
01.07.2020 02:16 19,2 C 18,3 C 17,8 C 82 % 1007,9 hPa 0,0 l/m 0 min 0 min 0 W/m 3,2 km/h (1 Bft) 95,74 %
01.07.2020 02:18 19,2 C 18,3 C 17,8 C 82 % 1007,9 hPa 0,0 l/m 0 min 0 min 0 W/m 9,7 km/h (2 Bft) 95,74 %
01.07.2020 02:20 19,2 C 18,3 C 17,8 C 82 % 1007,9 hPa 0,0 l/m 0 min 0 min 0 W/m 9,7 km/h (2 Bft) 95,65 %
01.07.2020 02:22 19,2 C 18,3 C 17,8 C 82 % 1007,9 hPa 0,0 l/m 0 min 0 min 0 W/m 0,0 km/h (0 Bft) 95,74 %
01.07.2020 02:24 19,2 C 18,3 C 17,8 C 82 % 1007,9 hPa 0,0 l/m 0 min 0 min 0 W/m 3,2 km/h (1 Bft) 93,62 %
01.07.2020 02:26 19,2 C 18,3 C 17,8 C 83 % 1007,9 hPa 0,0 l/m 0 min 0 min 0 W/m 6,4 km/h (2 Bft) 93,62 %
01.07.2020 02:28 19,2 C 18,3 C 17,8 C 83 % 1007,9 hPa 0,0 l/m 0 min 0 min 0 W/m 0,0 km/h (0 Bft) 93,62 %
01.07.2020 02:30 19,2 C 18,3 C 17,8 C 83 % 1007,9 hPa 0,0 l/m 0 min 0 min 0 W/m 3,2 km/h (1 Bft) 93,62 %
01.07.2020 02:32 19,2 C 17,8 C 17,8 C 83 % 1007,8 hPa 0,0 l/m 0 min 0 min 0 W/m 3,2 km/h (1 Bft) 95,65 %
01.07.2020 02:34 19,1 C 17,8 C 17,8 C 83 % 1007,8 hPa 0,0 l/m 0 min 0 min 0 W/m 3,2 km/h (1 Bft) 97,87 %
01.07.2020 02:36 19,1 C 17,2 C 17,8 C 83 % 1007,8 hPa 0,0 l/m 0 min 2 min 0 W/m 0,0 km/h (0 Bft) 100,00 %
01.07.2020 02:38 19,1 C 16,1 C 17,8 C 83 % 1007,8 hPa 0,2 l/m 0 min 2 min 0 W/m 6,4 km/h (2 Bft) 97,87 %
01.07.2020 02:40 19,2 C 15,6 C 17,2 C 83 % 1007,9 hPa 0,0 l/m 0 min 2 min 0 W/m 3,2 km/h (1 Bft) 97,87 %
01.07.2020 02:42 19,2 C 15,6 C 17,2 C 84 % 1008,0 hPa 0,2 l/m 0 min 2 min 0 W/m 6,4 km/h (2 Bft) 100,00 %
01.07.2020 02:44 19,2 C 15,6 C 16,7 C 84 % 1008,0 hPa 0,0 l/m 0 min 2 min 0 W/m 3,2 km/h (1 Bft) 100,00 %
01.07.2020 02:46 19,1 C 15,6 C 16,7 C 85 % 1008,0 hPa 0,0 l/m 0 min 2 min 0 W/m 0,0 km/h (0 Bft) 100,00 %
01.07.2020 02:48 19,1 C 15,6 C 16,7 C 85 % 1008,0 hPa 0,0 l/m 0 min 2 min 0 W/m 3,2 km/h (1 Bft) 100,00 %
01.07.2020 02:50 19,1 C 15,6 C 16,7 C 86 % 1008,0 hPa 0,0 l/m 0 min 2 min 0 W/m 0,0 km/h (0 Bft) 97,87 %
01.07.2020 02:52 19,1 C 15,6 C 16,1 C 86 % 1008,0 hPa 0,0 l/m 0 min 0 min 0 W/m 3,2 km/h (1 Bft) 100,00 %
01.07.2020 02:54 18,9 C 15,6 C 16,1 C 86 % 1008,0 hPa 0,2 l/m 0 min 2 min 0 W/m 0,0 km/h (0 Bft) 100,00 %
01.07.2020 02:56 18,9 C 15,6 C 16,1 C 87 % 1007,9 hPa 0,0 l/m 0 min 2 min 0 W/m 0,0 km/h (0 Bft) 97,83 %
01.07.2020 02:58 18,9 C 15,6 C 16,1 C 87 % 1007,9 hPa 0,0 l/m 0 min 2 min 0 W/m 0,0 km/h (0 Bft) 97,87 %
01.07.2020 03:00 18,8 C 15,6 C 16,1 C 87 % 1007,9 hPa 0,2 l/m 0 min 2 min 0 W/m 0,0 km/h (0 Bft) 97,87 %
01.07.2020 03:02 18,8 C 15,6 C 16,1 C 87 % 1007,9 hPa 0,0 l/m 0 min 2 min 0 W/m 0,0 km/h (0 Bft) 100,00 %
01.07.2020 03:04 18,7 C 15,6 C 16,1 C 88 % 1008,0 hPa 0,0 l/m 0 min 0 min 0 W/m 6,4 km/h (2 Bft) 100,00 %
01.07.2020 03:06 18,7 C 15,6 C 16,1 C 88 % 1007,9 hPa 0,0 l/m 0 min 0 min 0 W/m 0,0 km/h (0 Bft) 100,00 %
01.07.2020 03:08 18,6 C 15,6 C 16,1 C 88 % 1007,9 hPa 0,0 l/m 0 min 0 min 0 W/m 3,2 km/h (1 Bft) 100,00 %
01.07.2020 03:10 18,6 C 15,6 C 16,1 C 88 % 1008,0 hPa 0,0 l/m 0 min 2 min 0 W/m 0,0 km/h (0 Bft) 100,00 %
01.07.2020 03:12 18,5 C 15,6 C 16,1 C 89 % 1007,9 hPa 0,4 l/m 0 min 2 min 0 W/m 0,0 km/h (0 Bft) 97,87 %
01.07.2020 03:14 18,4 C 15,6 C 15,6 C 89 % 1007,9 hPa 0,2 l/m 0 min 2 min 0 W/m 3,2 km/h (1 Bft) 97,87 %
01.07.2020 03:16 18,3 C 15,6 C 15,6 C 89 % 1007,8 hPa 0,0 l/m 0 min 2 min 0 W/m 0,0 km/h (0 Bft) 100,00 %
01.07.2020 03:18 18,3 C 15,6 C 15,6 C 89 % 1007,8 hPa 0,2 l/m 0 min 2 min 0 W/m 0,0 km/h (0 Bft) 100,00 %
01.07.2020 03:20 18,2 C 15,6 C 15,6 C 90 % 1007,8 hPa 0,0 l/m 0 min 2 min 0 W/m 0,0 km/h (0 Bft) 100,00 %
01.07.2020 03:22 18,2 C 15,6 C 15,6 C 90 % 1007,8 hPa 0,0 l/m 0 min 0 min 0 W/m 0,0 km/h (0 Bft) 100,00 %
01.07.2020 03:24 18,1 C 15,6 C 15,6 C 90 % 1007,7 hPa 0,0 l/m 0 min 0 min 0 W/m 0,0 km/h (0 Bft) 100,00 %
01.07.2020 03:26 18,1 C 15,6 C 15,6 C 90 % 1007,7 hPa 0,0 l/m 0 min 0 min 0 W/m 0,0 km/h (0 Bft) 97,87 %
01.07.2020 03:28 18,1 C 15,6 C 15,6 C 91 % 1007,7 hPa 0,0 l/m 0 min 0 min 0 W/m 0,0 km/h (0 Bft) 97,87 %
01.07.2020 03:30 18,0 C 15,6 C 15,6 C 91 % 1007,7 hPa 0,0 l/m 0 min 0 min 0 W/m 0,0 km/h (0 Bft) 97,83 %
01.07.2020 03:32 17,9 C 15,6 C 15,6 C 91 % 1007,6 hPa 0,0 l/m 0 min 0 min 0 W/m 0,0 km/h (0 Bft) 97,92 %
01.07.2020 03:34 17,9 C 15,6 C 15,6 C 91 % 1007,6 hPa 0,0 l/m 0 min 0 min 0 W/m 0,0 km/h (0 Bft) 97,87 %
01.07.2020 03:36 17,9 C 15,6 C 15,6 C 91 % 1007,6 hPa 0,0 l/m 0 min 0 min 0 W/m 0,0 km/h (0 Bft) 97,87 %
01.07.2020 03:38 17,8 C 15,6 C 15,6 C 91 % 1007,6 hPa 0,0 l/m 0 min 0 min 0 W/m 0,0 km/h (0 Bft) 97,87 %
01.07.2020 03:40 17,8 C 15,6 C 15,6 C 91 % 1007,7 hPa 0,0 l/m 0 min 0 min 0 W/m 0,0 km/h (0 Bft) 95,74 %
01.07.2020 03:42 17,8 C 15,6 C 15,6 C 92 % 1007,7 hPa 0,0 l/m 0 min 0 min 0 W/m 6,4 km/h (2 Bft) 97,87 %
01.07.2020 03:44 17,7 C 15,6 C 15,6 C 92 % 1007,7 hPa 0,0 l/m 0 min 0 min 0 W/m 0,0 km/h (0 Bft) 97,83 %
01.07.2020 03:46 17,7 C 15,6 C 15,6 C 92 % 1007,6 hPa 0,0 l/m 0 min 0 min 0 W/m 0,0 km/h (0 Bft) 95,74 %
01.07.2020 03:48 17,7 C 15,6 C 15,6 C 92 % 1007,7 hPa 0,0 l/m 0 min 0 min 0 W/m 3,2 km/h (1 Bft) 97,87 %
01.07.2020 03:50 17,6 C 15,6 C 15,6 C 92 % 1007,7 hPa 0,0 l/m 0 min 0 min 0 W/m 0,0 km/h (0 Bft) 97,87 %
01.07.2020 03:52 17,6 C 15,6 C 15,6 C 92 % 1007,6 hPa 0,0 l/m 0 min 0 min 0 W/m 0,0 km/h (0 Bft) 97,87 %
01.07.2020 03:54 17,6 C 15,6 C 15,6 C 92 % 1007,6 hPa 0,0 l/m 0 min 0 min 0 W/m 0,0 km/h (0 Bft) 97,83 %
01.07.2020 03:56 17,6 C 15,6 C 15,6 C 93 % 1007,7 hPa 0,0 l/m 0 min 0 min 0 W/m 0,0 km/h (0 Bft) 97,87 %
01.07.2020 03:58 17,5 C 15,6 C 15,6 C 93 % 1007,7 hPa 0,0 l/m 0 min 0 min 0 W/m 0,0 km/h (0 Bft) 91,49 %
01.07.2020 04:00 17,5 C 15,6 C 15,6 C 93 % 1007,6 hPa 0,0 l/m 0 min 0 min 0 W/m 0,0 km/h (0 Bft) 97,87 %
01.07.2020 04:02 17,5 C 15,6 C 15,6 C 93 % 1007,6 hPa 0,0 l/m 0 min 0 min 0 W/m 0,0 km/h (0 Bft) 96,67 %
01.07.2020 04:04 17,4 C 15,6 C 15,6 C 93 % 1007,6 hPa 0,0 l/m 0 min 0 min 0 W/m 6,4 km/h (2 Bft) 97,83 %
01.07.2020 04:06 17,4 C 15,6 C 15,6 C 93 % 1007,6 hPa 0,0 l/m 0 min 0 min 0 W/m 0,0 km/h (0 Bft) 97,87 %
01.07.2020 04:08 17,4 C 15,6 C 15,6 C 93 % 1007,6 hPa 0,0 l/m 0 min 0 min 0 W/m 9,7 km/h (2 Bft) 97,87 %
01.07.2020 04:10 17,3 C 15,6 C 15,6 C 93 % 1007,6 hPa 0,0 l/m 0 min 0 min 0 W/m 12,9 km/h (3 Bft) 97,87 %
01.07.2020 04:12 17,3 C 15,6 C 15,6 C 93 % 1007,5 hPa 0,0 l/m 0 min 0 min 0 W/m 0,0 km/h (0 Bft) 97,87 %
01.07.2020 04:14 17,3 C 15,6 C 15,6 C 93 % 1007,6 hPa 0,0 l/m 0 min 0 min 0 W/m 6,4 km/h (2 Bft) 97,87 %
01.07.2020 04:16 17,3 C 15,6 C 15,6 C 94 % 1007,5 hPa 0,0 l/m 0 min 0 min 0 W/m 6,4 km/h (2 Bft) 100,00 %
01.07.2020 04:18 17,3 C 15,6 C 15,6 C 94 % 1007,5 hPa 0,0 l/m 0 min 0 min 0 W/m 6,4 km/h (2 Bft) 97,87 %
01.07.2020 04:20 17,2 C 15,6 C 15,6 C 94 % 1007,6 hPa 0,0 l/m 0 min 0 min 0 W/m 19,3 km/h (3 Bft) 95,74 %
01.07.2020 04:22 17,2 C 15,6 C 15,6 C 94 % 1007,6 hPa 0,0 l/m 0 min 0 min 0 W/m 16,1 km/h (3 Bft) 97,87 %
01.07.2020 04:24 17,2 C 15,6 C 15,6 C 94 % 1007,5 hPa 0,0 l/m 0 min 0 min 0 W/m 12,9 km/h (3 Bft) 100,00 %
01.07.2020 04:26 17,2 C 15,6 C 15,6 C 94 % 1007,5 hPa 0,0 l/m 0 min 0 min 0 W/m 12,9 km/h (3 Bft) 100,00 %
01.07.2020 04:28 17,1 C 15,6 C 15,6 C 94 % 1007,5 hPa 0,0 l/m 0 min 0 min 0 W/m 16,1 km/h (3 Bft) 97,83 %
01.07.2020 04:30 17,1 C 15,6 C 15,6 C 95 % 1007,5 hPa 0,0 l/m 0 min 0 min 0 W/m 22,5 km/h (4 Bft) 97,87 %
01.07.2020 04:32 17,1 C 15,6 C 15,6 C 95 % 1007,5 hPa 0,0 l/m 0 min 0 min 0 W/m 16,1 km/h (3 Bft) 97,87 %
01.07.2020 04:34 17,1 C 15,6 C 15,6 C 95 % 1007,5 hPa 0,0 l/m 0 min 0 min 0 W/m 6,4 km/h (2 Bft) 97,87 %
01.07.2020 04:36 17,1 C 15,6 C 15,6 C 95 % 1007,5 hPa 0,0 l/m 0 min 0 min 0 W/m 12,9 km/h (3 Bft) 97,87 %
01.07.2020 04:38 17,1 C 15,6 C 15,6 C 95 % 1007,3 hPa 0,0 l/m 0 min 0 min 0 W/m 12,9 km/h (3 Bft) 97,87 %
01.07.2020 04:40 17,1 C 15,6 C 15,6 C 95 % 1007,3 hPa 0,0 l/m 0 min 0 min 0 W/m 6,4 km/h (2 Bft) 95,65 %
01.07.2020 04:42 17,1 C 15,6 C 15,6 C 95 % 1007,5 hPa 0,0 l/m 0 min 0 min 0 W/m 3,2 km/h (1 Bft) 97,87 %
01.07.2020 04:44 17,1 C 15,6 C 15,6 C 95 % 1007,5 hPa 0,0 l/m 0 min 2 min 0 W/m 6,4 km/h (2 Bft) 97,87 %
01.07.2020 04:46 17,0 C 15,6 C 15,6 C 95 % 1007,5 hPa 0,0 l/m 0 min 2 min 0 W/m 12,9 km/h (3 Bft) 97,87 %
01.07.2020 04:48 17,0 C 15,6 C 15,6 C 95 % 1007,5 hPa 0,0 l/m 0 min 2 min 0 W/m 16,1 km/h (3 Bft) 97,87 %
01.07.2020 04:50 17,0 C 15,6 C 15,6 C 95 % 1007,5 hPa 0,0 l/m 0 min 2 min 0 W/m 12,9 km/h (3 Bft) 95,74 %
01.07.2020 04:52 17,0 C 15,6 C 15,6 C 95 % 1007,5 hPa 0,0 l/m 0 min 2 min 0 W/m 3,2 km/h (1 Bft) 97,83 %
01.07.2020 04:54 17,0 C 15,6 C 15,6 C 95 % 1007,4 hPa 0,2 l/m 0 min 2 min 0 W/m 6,4 km/h (2 Bft) 97,87 %
01.07.2020 04:56 17,0 C 15,6 C 15,6 C 95 % 1007,4 hPa 0,0 l/m 0 min 2 min 0 W/m 3,2 km/h (1 Bft) 97,87 %
01.07.2020 04:58 17,0 C 15,6 C 15,6 C 96 % 1007,4 hPa 0,0 l/m 0 min 2 min 0 W/m 12,9 km/h (3 Bft) 97,87 %
01.07.2020 05:00 17,0 C 15,6 C 15,6 C 96 % 1007,3 hPa 0,0 l/m 0 min 2 min 0 W/m 6,4 km/h (2 Bft) 95,74 %
01.07.2020 05:02 17,0 C 15,6 C 15,6 C 96 % 1007,3 hPa 0,0 l/m 0 min 2 min 0 W/m 12,9 km/h (3 Bft) 97,83 %
01.07.2020 05:04 16,9 C 15,6 C 15,6 C 96 % 1007,3 hPa 0,0 l/m 0 min 2 min 0 W/m 6,4 km/h (2 Bft) 95,74 %
01.07.2020 05:06 17,0 C 15,6 C 15,6 C 96 % 1007,3 hPa 0,0 l/m 0 min 2 min 0 W/m 3,2 km/h (1 Bft) 93,62 %
01.07.2020 05:08 16,9 C 15,6 C 15,6 C 96 % 1007,3 hPa 0,2 l/m 0 min 2 min 0 W/m 6,4 km/h (2 Bft) 97,87 %
01.07.2020 05:10 16,9 C 15,6 C 15,6 C 96 % 1007,4 hPa 0,0 l/m 0 min 2 min 0 W/m 12,9 km/h (3 Bft) 95,74 %
01.07.2020 05:12 16,9 C 15,6 C 15,6 C 96 % 1007,5 hPa 0,0 l/m 0 min 2 min 0 W/m 12,9 km/h (3 Bft) 97,87 %
01.07.2020 05:14 16,9 C 15,6 C 15,6 C 96 % 1007,4 hPa 0,0 l/m 0 min 2 min 0 W/m 19,3 km/h (3 Bft) 97,83 %
01.07.2020 05:16 16,9 C 15,6 C 15,6 C 96 % 1007,4 hPa 0,0 l/m 0 min 0 min 0 W/m 12,9 km/h (3 Bft) 95,74 %
01.07.2020 05:18 16,9 C 15,6 C 15,6 C 96 % 1007,3 hPa 0,0 l/m 0 min 0 min 0 W/m 16,1 km/h (3 Bft) 93,62 %
01.07.2020 05:20 16,9 C 15,6 C 15,6 C 96 % 1007,3 hPa 0,0 l/m 0 min 0 min 0 W/m 6,4 km/h (2 Bft) 95,74 %
01.07.2020 05:22 16,9 C 15,6 C 15,6 C 96 % 1007,2 hPa 0,0 l/m 0 min 0 min 0 W/m 3,2 km/h (1 Bft) 97,87 %
01.07.2020 05:24 16,9 C 15,6 C 15,6 C 96 % 1007,2 hPa 0,0 l/m 0 min 0 min 0 W/m 3,2 km/h (1 Bft) 97,87 %
01.07.2020 05:26 16,9 C 15,6 C 15,6 C 96 % 1007,1 hPa 0,0 l/m 0 min 0 min 0 W/m 6,4 km/h (2 Bft) 97,83 %
01.07.2020 05:28 16,9 C 15,6 C 15,6 C 96 % 1007,2 hPa 0,0 l/m 0 min 0 min 0 W/m 19,3 km/h (3 Bft) 97,87 %
01.07.2020 05:30 16,9 C 15,6 C 15,6 C 96 % 1007,1 hPa 0,0 l/m 0 min 0 min 0 W/m 3,2 km/h (1 Bft) 95,74 %
01.07.2020 05:32 16,9 C 15,6 C 15,6 C 96 % 1007,2 hPa 0,0 l/m 0 min 0 min 0 W/m 3,2 km/h (1 Bft) 95,74 %
01.07.2020 05:34 16,8 C 15,6 C 15,6 C 97 % 1007,1 hPa 0,0 l/m 0 min 2 min 0 W/m 16,1 km/h (3 Bft) 97,87 %
01.07.2020 05:36 16,8 C 15,6 C 15,6 C 96 % 1007,2 hPa 0,0 l/m 0 min 0 min 0 W/m 12,9 km/h (3 Bft) 95,74 %
01.07.2020 05:38 16,8 C 15,6 C 15,6 C 96 % 1007,1 hPa 0,0 l/m 0 min 0 min 0 W/m 0,0 km/h (0 Bft) 97,83 %
01.07.2020 05:40 16,8 C 15,6 C 15,6 C 96 % 1007,1 hPa 0,0 l/m 0 min 0 min 1 W/m 9,7 km/h (2 Bft) 91,49 %
01.07.2020 05:42 16,8 C 15,6 C 15,6 C 97 % 1007,1 hPa 0,0 l/m 0 min 0 min 4 W/m 0,0 km/h (0 Bft) 100,00 %
01.07.2020 05:44 16,8 C 15,6 C 15,6 C 97 % 1007,1 hPa 0,0 l/m 0 min 2 min 0 W/m 19,3 km/h (3 Bft) 95,74 %
01.07.2020 05:46 16,8 C 15,6 C 15,6 C 97 % 1007,1 hPa 0,0 l/m 0 min 2 min 0 W/m 6,4 km/h (2 Bft) 97,87 %
01.07.2020 05:48 16,8 C 15,6 C 15,6 C 97 % 1007,1 hPa 0,0 l/m 0 min 2 min 0 W/m 19,3 km/h (3 Bft) 97,87 %
01.07.2020 05:50 16,8 C 15,6 C 15,6 C 97 % 1007,1 hPa 0,2 l/m 0 min 2 min 0 W/m 6,4 km/h (2 Bft) 95,65 %
01.07.2020 05:52 16,8 C 15,6 C 15,0 C 97 % 1007,2 hPa 0,2 l/m 0 min 2 min 0 W/m 12,9 km/h (3 Bft) 95,74 %
01.07.2020 05:54 16,8 C 15,6 C 15,0 C 97 % 1007,2 hPa 0,2 l/m 0 min 2 min 0 W/m 16,1 km/h (3 Bft) 95,74 %
01.07.2020 05:56 16,8 C 15,6 C 15,0 C 97 % 1007,1 hPa 0,2 l/m 0 min 2 min 0 W/m 12,9 km/h (3 Bft) 97,87 %
01.07.2020 05:58 16,8 C 15,6 C 15,0 C 97 % 1007,2 hPa 0,2 l/m 0 min 2 min 0 W/m 3,2 km/h (1 Bft) 97,87 %
01.07.2020 06:00 16,8 C 15,6 C 15,0 C 97 % 1007,1 hPa 0,0 l/m 0 min 2 min 0 W/m 3,2 km/h (1 Bft) 97,87 %
01.07.2020 06:02 16,8 C 15,6 C 15,0 C 97 % 1007,2 hPa 0,0 l/m 0 min 2 min 0 W/m 6,4 km/h (2 Bft) 95,65 %
01.07.2020 06:04 16,8 C 15,6 C 15,0 C 97 % 1007,2 hPa 0,2 l/m 0 min 2 min 3 W/m 3,2 km/h (1 Bft) 95,74 %
01.07.2020 06:08 16,8 C 15,6 C 15,0 C 97 % 1007,3 hPa 0,0 l/m 0 min 4 min 6 W/m 12,9 km/h (3 Bft) 97,87 %
01.07.2020 06:10 16,8 C 15,6 C 15,0 C 97 % 1007,2 hPa 0,0 l/m 0 min 0 min 9 W/m 9,7 km/h (2 Bft) 95,74 %
01.07.2020 06:12 16,8 C 15,6 C 15,0 C 97 % 1007,2 hPa 0,0 l/m 0 min 2 min 9 W/m 19,3 km/h (3 Bft) 97,83 %
01.07.2020 06:14 16,8 C 15,6 C 15,0 C 97 % 1007,2 hPa 0,0 l/m 0 min 2 min 9 W/m 12,9 km/h (3 Bft) 97,87 %
01.07.2020 06:16 16,8 C 15,6 C 15,0 C 97 % 1007,1 hPa 0,0 l/m 0 min 0 min 9 W/m 6,4 km/h (2 Bft) 95,74 %
01.07.2020 06:18 16,8 C 15,6 C 15,0 C 97 % 1007,1 hPa 0,2 l/m 0 min 2 min 9 W/m 6,4 km/h (2 Bft) 95,74 %
01.07.2020 06:20 16,8 C 15,6 C 15,0 C 97 % 1007,2 hPa 0,0 l/m 0 min 2 min 8 W/m 6,4 km/h (2 Bft) 91,49 %
01.07.2020 06:22 16,8 C 15,6 C 15,0 C 97 % 1007,2 hPa 0,0 l/m 0 min 2 min 7 W/m 6,4 km/h (2 Bft) 93,62 %
01.07.2020 06:24 16,8 C 15,6 C 15,0 C 97 % 1007,2 hPa 0,0 l/m 0 min 2 min 9 W/m 19,3 km/h (3 Bft) 89,13 %
01.07.2020 06:26 16,8 C 15,6 C 15,0 C 97 % 1007,1 hPa 0,0 l/m 0 min 2 min 10 W/m 3,2 km/h (1 Bft) 91,49 %
01.07.2020 06:28 16,8 C 15,6 C 15,0 C 97 % 1007,1 hPa 0,0 l/m 0 min 2 min 11 W/m 12,9 km/h (3 Bft) 93,62 %
01.07.2020 06:30 16,8 C 15,6 C 15,0 C 97 % 1007,1 hPa 0,0 l/m 0 min 0 min 9 W/m 6,4 km/h (2 Bft) 95,74 %
01.07.2020 06:32 16,8 C 15,6 C 15,0 C 97 % 1007,1 hPa 0,0 l/m 0 min 0 min 7 W/m 12,9 km/h (3 Bft) 93,62 %
01.07.2020 06:34 16,8 C 15,6 C 15,0 C 97 % 1007,1 hPa 0,0 l/m 0 min 2 min 7 W/m 3,2 km/h (1 Bft) 93,62 %
01.07.2020 06:36 16,8 C 15,6 C 15,0 C 98 % 1007,2 hPa 0,0 l/m 0 min 2 min 5 W/m 6,4 km/h (2 Bft) 95,65 %
01.07.2020 06:38 16,8 C 15,6 C 15,0 C 97 % 1007,2 hPa 0,0 l/m 0 min 0 min 5 W/m 0,0 km/h (0 Bft) 97,87 %
01.07.2020 06:40 16,8 C 15,6 C 15,0 C 98 % 1007,2 hPa 0,2 l/m 0 min 2 min 6 W/m 6,4 km/h (2 Bft) 97,87 %
01.07.2020 06:42 16,8 C 15,6 C 15,0 C 98 % 1007,0 hPa 0,0 l/m 0 min 2 min 11 W/m 12,9 km/h (3 Bft) 95,74 %
01.07.2020 06:44 16,8 C 15,6 C 15,0 C 98 % 1007,0 hPa 0,2 l/m 0 min 2 min 12 W/m 12,9 km/h (3 Bft) 97,87 %
01.07.2020 06:46 16,8 C 15,6 C 15,0 C 98 % 1007,0 hPa 0,0 l/m 0 min 2 min 12 W/m 9,7 km/h (2 Bft) 97,83 %
01.07.2020 06:48 16,8 C 15,6 C 15,0 C 98 % 1007,1 hPa 0,0 l/m 0 min 2 min 12 W/m 9,7 km/h (2 Bft) 97,87 %
01.07.2020 06:50 16,8 C 15,6 C 15,0 C 98 % 1007,1 hPa 0,0 l/m 0 min 2 min 11 W/m 12,9 km/h (3 Bft) 93,62 %
01.07.2020 06:52 16,8 C 15,6 C 15,0 C 98 % 1007,2 hPa 0,0 l/m 0 min 2 min 11 W/m 6,4 km/h (2 Bft) 97,87 %
01.07.2020 06:54 16,8 C 15,6 C 15,0 C 98 % 1007,2 hPa 0,0 l/m 0 min 2 min 11 W/m 3,2 km/h (1 Bft) 100,00 %
01.07.2020 06:56 16,8 C 15,6 C 15,0 C 98 % 1007,2 hPa 0,0 l/m 0 min 2 min 10 W/m 3,2 km/h (1 Bft) 95,74 %
01.07.2020 06:58 16,8 C 15,6 C 15,0 C 98 % 1007,2 hPa 0,2 l/m 0 min 2 min 9 W/m 12,9 km/h (3 Bft) 100,00 %
01.07.2020 07:00 16,8 C 15,6 C 15,0 C 98 % 1007,2 hPa 0,0 l/m 0 min 2 min 10 W/m 6,4 km/h (2 Bft) 95,65 %
01.07.2020 07:02 16,8 C 15,6 C 15,6 C 98 % 1007,1 hPa 0,0 l/m 0 min 2 min 12 W/m 3,2 km/h (1 Bft) 97,87 %
01.07.2020 07:04 16,8 C 15,6 C 15,6 C 98 % 1007,1 hPa 0,2 l/m 0 min 2 min 14 W/m 12,9 km/h (3 Bft) 97,87 %
01.07.2020 07:06 16,8 C 15,6 C 15,0 C 98 % 1007,1 hPa 0,2 l/m 0 min 2 min 16 W/m 12,9 km/h (3 Bft) 100,00 %
01.07.2020 07:08 16,8 C 15,6 C 15,6 C 98 % 1007,1 hPa 0,0 l/m 0 min 2 min 18 W/m 6,4 km/h (2 Bft) 95,74 %
01.07.2020 07:10 16,8 C 15,6 C 15,6 C 98 % 1007,1 hPa 0,2 l/m 0 min 2 min 17 W/m 6,4 km/h (2 Bft) 100,00 %
01.07.2020 07:12 16,9 C 15,6 C 15,6 C 98 % 1007,2 hPa 0,2 l/m 0 min 2 min 16 W/m 19,3 km/h (3 Bft) 100,00 %
01.07.2020 07:14 16,9 C 15,6 C 15,6 C 98 % 1007,2 hPa 0,0 l/m 0 min 2 min 16 W/m 12,9 km/h (3 Bft) 97,87 %
01.07.2020 07:16 16,9 C 15,6 C 15,6 C 98 % 1007,3 hPa 0,0 l/m 0 min 2 min 17 W/m 12,9 km/h (3 Bft) 97,87 %
01.07.2020 07:18 16,9 C 15,6 C 15,6 C 98 % 1007,2 hPa 0,2 l/m 0 min 2 min 21 W/m 12,9 km/h (3 Bft) 95,74 %
01.07.2020 07:20 16,9 C 15,6 C 15,6 C 98 % 1007,2 hPa 0,0 l/m 0 min 2 min 26 W/m 16,1 km/h (3 Bft) 100,00 %
01.07.2020 07:22 16,9 C 15,6 C 15,6 C 98 % 1007,2 hPa 0,0 l/m 0 min 2 min 29 W/m 19,3 km/h (3 Bft) 100,00 %
01.07.2020 07:24 16,9 C 15,6 C 15,6 C 98 % 1007,2 hPa 0,0 l/m 0 min 2 min 24 W/m 16,1 km/h (3 Bft) 97,87 %
01.07.2020 07:26 16,9 C 15,6 C 15,6 C 98 % 1007,2 hPa 0,0 l/m 0 min 2 min 22 W/m 16,1 km/h (3 Bft) 97,87 %
01.07.2020 07:28 16,9 C 15,6 C 15,6 C 98 % 1007,1 hPa 0,2 l/m 0 min 2 min 31 W/m 9,7 km/h (2 Bft) 97,87 %
01.07.2020 07:30 16,9 C 15,6 C 15,6 C 98 % 1007,1 hPa 0,0 l/m 0 min 2 min 32 W/m 9,7 km/h (2 Bft) 97,87 %
01.07.2020 07:32 16,9 C 15,6 C 15,6 C 98 % 1007,1 hPa 0,2 l/m 0 min 2 min 37 W/m 12,9 km/h (3 Bft) 97,87 %
01.07.2020 07:34 16,9 C 15,6 C 15,6 C 98 % 1007,2 hPa 0,0 l/m 0 min 2 min 38 W/m 6,4 km/h (2 Bft) 97,83 %
01.07.2020 07:36 16,9 C 15,6 C 15,6 C 98 % 1007,2 hPa 0,2 l/m 0 min 2 min 41 W/m 19,3 km/h (3 Bft) 97,87 %
01.07.2020 07:38 16,9 C 15,6 C 15,6 C 98 % 1007,2 hPa 0,0 l/m 0 min 2 min 43 W/m 16,1 km/h (3 Bft) 97,87 %
01.07.2020 07:40 17,0 C 15,6 C 15,6 C 98 % 1007,1 hPa 0,0 l/m 0 min 2 min 57 W/m 9,7 km/h (2 Bft) 97,87 %
01.07.2020 07:42 17,0 C 15,6 C 15,6 C 98 % 1007,0 hPa 0,0 l/m 0 min 2 min 48 W/m 25,7 km/h (4 Bft) 97,87 %
01.07.2020 07:44 17,0 C 15,6 C 15,6 C 98 % 1007,0 hPa 0,0 l/m 0 min 2 min 36 W/m 19,3 km/h (3 Bft) 97,87 %
01.07.2020 07:46 17,0 C 15,6 C 15,6 C 98 % 1007,0 hPa 0,0 l/m 0 min 2 min 39 W/m 12,9 km/h (3 Bft) 97,83 %
01.07.2020 07:48 17,0 C 15,6 C 15,6 C 98 % 1007,0 hPa 0,2 l/m 0 min 2 min 39 W/m 12,9 km/h (3 Bft) 97,87 %
01.07.2020 07:50 17,0 C 15,6 C 15,6 C 98 % 1007,0 hPa 0,0 l/m 0 min 2 min 34 W/m 6,4 km/h (2 Bft) 95,74 %
01.07.2020 07:52 17,0 C 15,6 C 15,6 C 98 % 1007,0 hPa 0,0 l/m 0 min 2 min 35 W/m 6,4 km/h (2 Bft) 95,74 %
01.07.2020 07:54 17,1 C 15,6 C 15,6 C 98 % 1007,1 hPa 0,2 l/m 0 min 2 min 43 W/m 19,3 km/h (3 Bft) 97,87 %
01.07.2020 07:56 17,0 C 16,1 C 15,6 C 98 % 1007,1 hPa 0,0 l/m 0 min 2 min 52 W/m 6,4 km/h (2 Bft) 97,87 %
01.07.2020 07:58 17,1 C 15,6 C 15,6 C 98 % 1007,1 hPa 0,0 l/m 0 min 2 min 54 W/m 16,1 km/h (3 Bft) 95,65 %
01.07.2020 08:00 17,1 C 16,1 C 15,6 C 98 % 1007,2 hPa 0,0 l/m 0 min 2 min 67 W/m 16,1 km/h (3 Bft) 97,87 %
01.07.2020 08:02 17,1 C 16,1 C 15,6 C 99 % 1007,2 hPa 0,0 l/m 0 min 0 min 96 W/m 16,1 km/h (3 Bft) 97,87 %
01.07.2020 08:04 17,1 C 16,1 C 15,6 C 99 % 1007,3 hPa 0,0 l/m 0 min 0 min 114 W/m 22,5 km/h (4 Bft) 97,87 %
01.07.2020 08:06 17,1 C 16,1 C 15,6 C 99 % 1007,3 hPa 0,0 l/m 0 min 0 min 101 W/m 6,4 km/h (2 Bft) 95,74 %
01.07.2020 08:08 17,1 C 16,1 C 15,6 C 99 % 1007,2 hPa 0,0 l/m 0 min 0 min 95 W/m 25,7 km/h (4 Bft) 97,87 %
01.07.2020 08:10 17,1 C 16,1 C 15,6 C 99 % 1007,2 hPa 0,0 l/m 0 min 0 min 83 W/m 12,9 km/h (3 Bft) 97,83 %
01.07.2020 08:12 17,1 C 16,1 C 15,6 C 99 % 1007,2 hPa 0,0 l/m 0 min 0 min 91 W/m 12,9 km/h (3 Bft) 97,87 %
01.07.2020 08:14 17,2 C 16,1 C 15,6 C 99 % 1007,2 hPa 0,0 l/m 0 min 0 min 79 W/m 6,4 km/h (2 Bft) 97,87 %
01.07.2020 08:16 17,2 C 16,1 C 15,6 C 99 % 1007,2 hPa 0,0 l/m 0 min 0 min 79 W/m 9,7 km/h (2 Bft) 95,74 %
01.07.2020 08:18 17,2 C 16,1 C 15,6 C 99 % 1007,2 hPa 0,0 l/m 0 min 0 min 88 W/m 3,2 km/h (1 Bft) 97,87 %
01.07.2020 08:20 17,2 C 16,1 C 15,6 C 99 % 1007,3 hPa 0,0 l/m 0 min 0 min 89 W/m 6,4 km/h (2 Bft) 100,00 %
01.07.2020 08:22 17,2 C 16,1 C 15,6 C 99 % 1007,3 hPa 0,0 l/m 0 min 0 min 71 W/m 12,9 km/h (3 Bft) 95,74 %
01.07.2020 08:24 17,2 C 16,1 C 15,6 C 99 % 1007,2 hPa 0,0 l/m 0 min 0 min 63 W/m 12,9 km/h (3 Bft) 97,87 %
01.07.2020 08:26 17,2 C 16,1 C 15,6 C 99 % 1007,3 hPa 0,0 l/m 0 min 0 min 61 W/m 12,9 km/h (3 Bft) 100,00 %
01.07.2020 08:28 17,2 C 16,1 C 15,6 C 99 % 1007,3 hPa 0,0 l/m 0 min 0 min 53 W/m 12,9 km/h (3 Bft) 100,00 %
01.07.2020 08:30 17,2 C 16,1 C 15,6 C 99 % 1007,3 hPa 0,0 l/m 0 min 0 min 47 W/m 6,4 km/h (2 Bft) 100,00 %
01.07.2020 08:32 17,2 C 16,1 C 15,6 C 99 % 1007,3 hPa 0,0 l/m 0 min 0 min 47 W/m 19,3 km/h (3 Bft) 100,00 %
01.07.2020 08:34 17,2 C 16,1 C 15,6 C 99 % 1007,3 hPa 0,0 l/m 0 min 0 min 45 W/m 19,3 km/h (3 Bft) 100,00 %
01.07.2020 08:36 17,2 C 16,1 C 15,6 C 99 % 1007,3 hPa 0,0 l/m 0 min 0 min 38 W/m 9,7 km/h (2 Bft) 97,87 %
01.07.2020 08:38 17,2 C 16,1 C 15,6 C 99 % 1007,3 hPa 0,0 l/m 0 min 0 min 40 W/m 16,1 km/h (3 Bft) 100,00 %
01.07.2020 08:40 17,2 C 16,1 C 15,6 C 99 % 1007,2 hPa 0,0 l/m 0 min 0 min 39 W/m 12,9 km/h (3 Bft) 100,00 %
01.07.2020 08:42 17,2 C 16,1 C 15,6 C 99 % 1007,2 hPa 0,0 l/m 0 min 0 min 38 W/m 12,9 km/h (3 Bft) 100,00 %
01.07.2020 08:44 17,2 C 16,1 C 15,6 C 99 % 1007,2 hPa 0,0 l/m 0 min 2 min 39 W/m 12,9 km/h (3 Bft) 100,00 %
01.07.2020 08:46 17,2 C 16,1 C 15,6 C 99 % 1007,2 hPa 0,0 l/m 0 min 2 min 36 W/m 19,3 km/h (3 Bft) 100,00 %
01.07.2020 08:48 17,2 C 16,1 C 15,6 C 99 % 1007,3 hPa 0,0 l/m 0 min 0 min 30 W/m 12,9 km/h (3 Bft) 100,00 %
01.07.2020 08:50 17,2 C 16,1 C 15,6 C 99 % 1007,3 hPa 0,0 l/m 0 min 0 min 26 W/m 6,4 km/h (2 Bft) 95,74 %
01.07.2020 08:52 17,2 C 16,1 C 15,6 C 99 % 1007,4 hPa 0,0 l/m 0 min 0 min 22 W/m 12,9 km/h (3 Bft) 97,87 %
01.07.2020 08:54 17,2 C 16,1 C 15,6 C 99 % 1007,5 hPa 0,0 l/m 0 min 0 min 20 W/m 12,9 km/h (3 Bft) 97,87 %
01.07.2020 08:56 17,2 C 16,1 C 15,6 C 99 % 1007,5 hPa 0,0 l/m 0 min 2 min 22 W/m 19,3 km/h (3 Bft) 97,83 %
01.07.2020 08:58 17,2 C 16,1 C 15,6 C 99 % 1007,5 hPa 0,2 l/m 0 min 2 min 31 W/m 0,0 km/h (0 Bft) 97,87 %
01.07.2020 09:00 17,2 C 16,1 C 15,6 C 99 % 1007,6 hPa 0,2 l/m 0 min 2 min 26 W/m 3,2 km/h (1 Bft) 93,62 %
01.07.2020 09:02 17,2 C 16,1 C 15,6 C 99 % 1007,6 hPa 0,4 l/m 0 min 2 min 22 W/m 0,0 km/h (0 Bft) 91,49 %
01.07.2020 09:04 17,2 C 16,1 C 15,6 C 99 % 1007,7 hPa 0,2 l/m 0 min 2 min 19 W/m 6,4 km/h (2 Bft) 95,74 %
01.07.2020 09:06 17,2 C 16,1 C 15,6 C 99 % 1007,8 hPa 0,2 l/m 0 min 2 min 24 W/m 3,2 km/h (1 Bft) 95,74 %
01.07.2020 09:08 17,2 C 16,1 C 16,1 C 99 % 1007,6 hPa 0,4 l/m 0 min 2 min 40 W/m 3,2 km/h (1 Bft) 95,65 %
01.07.2020 09:10 17,2 C 16,1 C 16,1 C 99 % 1007,6 hPa 0,2 l/m 0 min 2 min 47 W/m 3,2 km/h (1 Bft) 91,49 %
01.07.2020 09:12 17,3 C 16,1 C 16,1 C 99 % 1007,6 hPa 0,0 l/m 0 min 2 min 48 W/m 3,2 km/h (1 Bft) 95,74 %
01.07.2020 09:14 17,3 C 16,1 C 16,1 C 99 % 1007,5 hPa 0,2 l/m 0 min 2 min 62 W/m 0,0 km/h (0 Bft) 95,74 %
01.07.2020 09:16 17,3 C 16,1 C 16,1 C 99 % 1007,6 hPa 0,0 l/m 0 min 2 min 53 W/m 0,0 km/h (0 Bft) 95,74 %
01.07.2020 09:18 17,3 C 16,1 C 16,1 C 99 % 1007,5 hPa 0,0 l/m 0 min 2 min 44 W/m 3,2 km/h (1 Bft) 95,65 %
01.07.2020 09:20 17,3 C 16,1 C 16,1 C 99 % 1007,5 hPa 0,2 l/m 0 min 2 min 41 W/m 0,0 km/h (0 Bft) 95,74 %
01.07.2020 09:22 17,3 C 16,1 C 16,1 C 99 % 1007,5 hPa 0,0 l/m 0 min 2 min 48 W/m 0,0 km/h (0 Bft) 95,74 %
01.07.2020 09:24 17,3 C 16,1 C 16,1 C 99 % 1007,5 hPa 0,2 l/m 0 min 2 min 41 W/m 0,0 km/h (0 Bft) 95,74 %
01.07.2020 09:26 17,3 C 16,1 C 16,1 C 99 % 1007,5 hPa 0,2 l/m 0 min 2 min 33 W/m 0,0 km/h (0 Bft) 94,44 %
01.07.2020 09:28 17,3 C 16,1 C 16,1 C 99 % 1007,5 hPa 0,0 l/m 0 min 2 min 37 W/m 0,0 km/h (0 Bft) 95,74 %
01.07.2020 09:30 17,3 C 16,1 C 16,1 C 99 % 1007,5 hPa 0,0 l/m 0 min 2 min 44 W/m 0,0 km/h (0 Bft) 93,62 %
01.07.2020 09:32 17,3 C 16,1 C 16,1 C 99 % 1007,5 hPa 0,0 l/m 0 min 2 min 52 W/m 0,0 km/h (0 Bft) 91,49 %
01.07.2020 09:34 17,3 C 16,1 C 16,1 C 99 % 1007,5 hPa 0,2 l/m 0 min 2 min 52 W/m 6,4 km/h (2 Bft) 93,48 %
01.07.2020 09:36 17,3 C 16,1 C 16,1 C 99 % 1007,5 hPa 0,0 l/m 0 min 2 min 63 W/m 9,7 km/h (2 Bft) 95,74 %
01.07.2020 09:38 17,3 C 16,1 C 16,1 C 99 % 1007,5 hPa 0,2 l/m 0 min 2 min 68 W/m 3,2 km/h (1 Bft) 95,74 %
01.07.2020 09:40 17,3 C 16,1 C 16,1 C 99 % 1007,5 hPa 0,4 l/m 0 min 2 min 41 W/m 0,0 km/h (0 Bft) 95,74 %
01.07.2020 09:42 17,4 C 16,1 C 16,1 C 99 % 1007,5 hPa 0,0 l/m 0 min 2 min 36 W/m 3,2 km/h (1 Bft) 95,74 %
01.07.2020 09:44 17,4 C 16,1 C 16,1 C 99 % 1007,5 hPa 0,0 l/m 0 min 2 min 33 W/m 0,0 km/h (0 Bft) 95,65 %
01.07.2020 09:46 17,4 C 16,1 C 16,1 C 99 % 1007,6 hPa 0,0 l/m 0 min 2 min 41 W/m 3,2 km/h (1 Bft) 97,87 %
01.07.2020 09:48 17,4 C 16,1 C 16,1 C 99 % 1007,5 hPa 0,2 l/m 0 min 2 min 50 W/m 3,2 km/h (1 Bft) 97,87 %
01.07.2020 09:50 17,4 C 16,1 C 16,1 C 99 % 1007,5 hPa 0,0 l/m 0 min 2 min 38 W/m 3,2 km/h (1 Bft) 97,87 %
01.07.2020 09:52 17,4 C 16,1 C 16,1 C 99 % 1007,5 hPa 0,2 l/m 0 min 2 min 44 W/m 12,9 km/h (3 Bft) 100,00 %
01.07.2020 09:54 17,4 C 16,1 C 16,1 C 99 % 1007,5 hPa 0,0 l/m 0 min 2 min 48 W/m 0,0 km/h (0 Bft) 100,00 %
01.07.2020 09:56 17,4 C 16,1 C 16,1 C 99 % 1007,6 hPa 0,2 l/m 0 min 2 min 42 W/m 3,2 km/h (1 Bft) 100,00 %
01.07.2020 09:58 17,4 C 16,1 C 16,1 C 99 % 1007,6 hPa 0,0 l/m 0 min 2 min 33 W/m 0,0 km/h (0 Bft) 95,74 %
01.07.2020 10:00 17,4 C 16,1 C 16,1 C 99 % 1007,5 hPa 0,0 l/m 0 min 2 min 35 W/m 0,0 km/h (0 Bft) 97,87 %
01.07.2020 10:02 17,4 C 16,7 C 16,1 C 99 % 1007,5 hPa 0,2 l/m 0 min 2 min 44 W/m 0,0 km/h (0 Bft) 100,00 %
01.07.2020 10:04 17,4 C 16,1 C 16,1 C 99 % 1007,4 hPa 0,0 l/m 0 min 2 min 49 W/m 3,2 km/h (1 Bft) 100,00 %
01.07.2020 10:06 17,4 C 16,7 C 16,1 C 99 % 1007,4 hPa 0,0 l/m 0 min 2 min 52 W/m 3,2 km/h (1 Bft) 97,83 %
01.07.2020 10:08 17,5 C 16,7 C 16,1 C 99 % 1007,4 hPa 0,0 l/m 0 min 2 min 49 W/m 3,2 km/h (1 Bft) 100,00 %
01.07.2020 10:10 17,5 C 16,7 C 16,1 C 99 % 1007,4 hPa 0,2 l/m 0 min 2 min 48 W/m 0,0 km/h (0 Bft) 97,87 %
01.07.2020 10:12 17,5 C 16,7 C 16,1 C 99 % 1007,4 hPa 0,0 l/m 0 min 2 min 48 W/m 3,2 km/h (1 Bft) 97,87 %
01.07.2020 10:14 17,5 C 16,7 C 16,1 C 99 % 1007,4 hPa 0,0 l/m 0 min 2 min 51 W/m 3,2 km/h (1 Bft) 100,00 %
01.07.2020 10:16 17,6 C 16,7 C 16,1 C 99 % 1007,4 hPa 0,2 l/m 0 min 2 min 58 W/m 0,0 km/h (0 Bft) 100,00 %
01.07.2020 10:18 17,6 C 16,7 C 16,1 C 99 % 1007,3 hPa 0,0 l/m 0 min 2 min 59 W/m 3,2 km/h (1 Bft) 97,83 %
01.07.2020 10:20 17,6 C 16,7 C 16,1 C 99 % 1007,3 hPa 0,0 l/m 0 min 2 min 60 W/m 16,1 km/h (3 Bft) 97,87 %
01.07.2020 10:22 17,6 C 16,7 C 16,1 C 99 % 1007,2 hPa 0,0 l/m 0 min 2 min 78 W/m 12,9 km/h (3 Bft) 97,87 %
01.07.2020 10:24 17,6 C 16,7 C 16,1 C 99 % 1007,2 hPa 0,0 l/m 0 min 2 min 97 W/m 6,4 km/h (2 Bft) 100,00 %
01.07.2020 10:26 17,6 C 16,7 C 16,1 C 99 % 1007,1 hPa 0,0 l/m 0 min 0 min 115 W/m 6,4 km/h (2 Bft) 100,00 %
01.07.2020 10:28 17,7 C 16,7 C 16,1 C 99 % 1007,2 hPa 0,0 l/m 0 min 0 min 94 W/m 6,4 km/h (2 Bft) 97,87 %
01.07.2020 10:30 17,7 C 16,7 C 16,1 C 99 % 1007,2 hPa 0,0 l/m 0 min 2 min 80 W/m 9,7 km/h (2 Bft) 95,65 %
01.07.2020 10:32 17,7 C 16,7 C 16,1 C 100 % 1007,2 hPa 0,0 l/m 0 min 2 min 87 W/m 12,9 km/h (3 Bft) 97,87 %
01.07.2020 10:34 17,7 C 16,7 C 16,1 C 100 % 1007,2 hPa 0,0 l/m 0 min 2 min 97 W/m 6,4 km/h (2 Bft) 97,87 %
01.07.2020 10:36 17,7 C 16,7 C 16,1 C 100 % 1007,2 hPa 0,0 l/m 0 min 2 min 95 W/m 6,4 km/h (2 Bft) 97,87 %
01.07.2020 10:38 17,7 C 16,7 C 16,1 C 99 % 1007,2 hPa 0,2 l/m 0 min 2 min 90 W/m 16,1 km/h (3 Bft) 97,87 %
01.07.2020 10:40 17,7 C 16,7 C 16,1 C 99 % 1007,1 hPa 0,0 l/m 0 min 2 min 99 W/m 6,4 km/h (2 Bft) 95,65 %
01.07.2020 10:42 17,8 C 16,7 C 16,7 C 99 % 1007,2 hPa 0,0 l/m 0 min 2 min 126 W/m 3,2 km/h (1 Bft) 95,74 %
01.07.2020 10:44 17,8 C 16,7 C 16,7 C 99 % 1007,2 hPa 0,0 l/m 0 min 2 min 120 W/m 6,4 km/h (2 Bft) 97,87 %
01.07.2020 10:46 17,8 C 17,2 C 16,7 C 99 % 1007,2 hPa 0,0 l/m 0 min 2 min 128 W/m 6,4 km/h (2 Bft) 95,74 %
01.07.2020 10:48 17,8 C 17,2 C 16,7 C 99 % 1007,3 hPa 0,0 l/m 0 min 2 min 136 W/m 12,9 km/h (3 Bft) 95,74 %
01.07.2020 10:50 17,8 C 17,2 C 16,7 C 99 % 1007,2 hPa 0,0 l/m 0 min 2 min 136 W/m 12,9 km/h (3 Bft) 97,87 %
01.07.2020 10:52 17,9 C 17,2 C 16,7 C 99 % 1007,1 hPa 0,0 l/m 0 min 0 min 154 W/m 6,4 km/h (2 Bft) 97,83 %
01.07.2020 10:54 17,9 C 17,2 C 16,7 C 100 % 1007,1 hPa 0,0 l/m 0 min 0 min 164 W/m 16,1 km/h (3 Bft) 95,74 %
01.07.2020 10:56 17,9 C 17,2 C 16,7 C 100 % 1007,1 hPa 0,0 l/m 0 min 0 min 149 W/m 12,9 km/h (3 Bft) 97,87 %
01.07.2020 10:58 17,9 C 17,2 C 16,7 C 100 % 1007,2 hPa 0,0 l/m 0 min 0 min 130 W/m 16,1 km/h (3 Bft) 97,87 %
01.07.2020 11:00 17,9 C 17,2 C 16,7 C 100 % 1007,2 hPa 0,0 l/m 0 min 0 min 105 W/m 16,1 km/h (3 Bft) 95,74 %
01.07.2020 11:02 18,0 C 17,2 C 16,7 C 100 % 1007,1 hPa 0,0 l/m 0 min 0 min 132 W/m 3,2 km/h (1 Bft) 95,74 %
01.07.2020 11:04 18,0 C 17,8 C 16,7 C 100 % 1007,1 hPa 0,0 l/m 0 min 0 min 196 W/m 12,9 km/h (3 Bft) 95,65 %
01.07.2020 11:06 18,1 C 18,3 C 16,7 C 100 % 1007,1 hPa 0,0 l/m 0 min 0 min 237 W/m 3,2 km/h (1 Bft) 97,87 %
01.07.2020 11:08 18,1 C 18,9 C 17,2 C 100 % 1007,0 hPa 0,0 l/m 0 min 0 min 292 W/m 3,2 km/h (1 Bft) 97,87 %
01.07.2020 11:10 18,2 C 18,9 C 17,2 C 100 % 1007,1 hPa 0,0 l/m 0 min 0 min 249 W/m 3,2 km/h (1 Bft) 97,87 %
01.07.2020 11:12 18,2 C 18,3 C 17,2 C 100 % 1007,0 hPa 0,0 l/m 0 min 0 min 216 W/m 9,7 km/h (2 Bft) 95,74 %
01.07.2020 11:14 18,3 C 18,3 C 17,2 C 100 % 1007,0 hPa 0,0 l/m 0 min 0 min 199 W/m 12,9 km/h (3 Bft) 97,87 %
01.07.2020 11:16 18,3 C 18,3 C 17,2 C 100 % 1007,0 hPa 0,0 l/m 0 min 0 min 203 W/m 3,2 km/h (1 Bft) 97,83 %
01.07.2020 11:18 18,4 C 18,3 C 17,2 C 100 % 1007,0 hPa 0,0 l/m 0 min 0 min 158 W/m 12,9 km/h (3 Bft) 100,00 %
01.07.2020 11:20 18,4 C 18,3 C 17,2 C 100 % 1007,0 hPa 0,0 l/m 0 min 0 min 164 W/m 16,1 km/h (3 Bft) 100,00 %
01.07.2020 11:22 18,4 C 18,3 C 17,2 C 100 % 1007,0 hPa 0,0 l/m 0 min 0 min 213 W/m 12,9 km/h (3 Bft) 100,00 %
01.07.2020 11:24 18,4 C 18,3 C 17,2 C 100 % 1007,0 hPa 0,0 l/m 0 min 0 min 183 W/m 12,9 km/h (3 Bft) 100,00 %
01.07.2020 11:26 18,5 C 18,3 C 17,2 C 100 % 1007,1 hPa 0,0 l/m 0 min 0 min 168 W/m 12,9 km/h (3 Bft) 100,00 %
01.07.2020 11:28 18,5 C 18,3 C 17,2 C 100 % 1007,1 hPa 0,0 l/m 0 min 0 min 152 W/m 12,9 km/h (3 Bft) 100,00 %
01.07.2020 11:30 18,5 C 18,3 C 17,2 C 100 % 1007,0 hPa 0,0 l/m 0 min 0 min 157 W/m 12,9 km/h (3 Bft) 100,00 %
01.07.2020 11:32 18,5 C 18,3 C 17,2 C 100 % 1007,1 hPa 0,0 l/m 0 min 0 min 160 W/m 22,5 km/h (4 Bft) 100,00 %
01.07.2020 11:34 18,4 C 18,3 C 17,2 C 100 % 1007,1 hPa 0,0 l/m 0 min 0 min 162 W/m 19,3 km/h (3 Bft) 100,00 %
01.07.2020 11:36 18,4 C 18,3 C 17,2 C 100 % 1007,0 hPa 0,0 l/m 0 min 0 min 150 W/m 16,1 km/h (3 Bft) 100,00 %
01.07.2020 11:38 18,4 C 18,3 C 17,2 C 100 % 1007,1 hPa 0,0 l/m 0 min 0 min 144 W/m 16,1 km/h (3 Bft) 97,87 %
01.07.2020 11:40 18,4 C 18,3 C 16,7 C 100 % 1007,2 hPa 0,0 l/m 0 min 0 min 141 W/m 19,3 km/h (3 Bft) 97,83 %
01.07.2020 11:42 18,4 C 17,8 C 16,7 C 100 % 1007,1 hPa 0,0 l/m 0 min 0 min 130 W/m 25,7 km/h (4 Bft) 98,15 %
01.07.2020 11:44 18,4 C 17,8 C 16,7 C 100 % 1007,1 hPa 0,0 l/m 0 min 0 min 128 W/m 12,9 km/h (3 Bft) 97,87 %
01.07.2020 11:46 18,4 C 18,3 C 16,7 C 100 % 1007,2 hPa 0,0 l/m 0 min 0 min 140 W/m 29,0 km/h (5 Bft) 95,74 %
01.07.2020 11:48 18,4 C 18,3 C 16,7 C 100 % 1007,1 hPa 0,0 l/m 0 min 0 min 126 W/m 19,3 km/h (3 Bft) 97,87 %
01.07.2020 11:50 18,4 C 17,8 C 16,7 C 100 % 1007,0 hPa 0,0 l/m 0 min 0 min 94 W/m 16,1 km/h (3 Bft) 97,83 %
01.07.2020 11:52 18,4 C 18,3 C 16,7 C 100 % 1007,0 hPa 0,0 l/m 0 min 0 min 162 W/m 16,1 km/h (3 Bft) 97,87 %
01.07.2020 11:54 18,4 C 18,3 C 16,7 C 100 % 1007,0 hPa 0,0 l/m 0 min 0 min 185 W/m 19,3 km/h (3 Bft) 97,87 %
01.07.2020 11:56 18,4 C 18,3 C 17,2 C 100 % 1007,0 hPa 0,0 l/m 0 min 0 min 192 W/m 3,2 km/h (1 Bft) 97,87 %
01.07.2020 11:58 18,4 C 18,3 C 17,2 C 100 % 1007,0 hPa 0,0 l/m 0 min 0 min 182 W/m 22,5 km/h (4 Bft) 97,87 %
01.07.2020 12:00 18,4 C 18,3 C 17,2 C 100 % 1007,1 hPa 0,0 l/m 0 min 0 min 173 W/m 16,1 km/h (3 Bft) 97,87 %
01.07.2020 12:02 18,5 C 18,3 C 17,2 C 100 % 1007,0 hPa 0,0 l/m 0 min 0 min 155 W/m 19,3 km/h (3 Bft) 97,22 %
01.07.2020 12:04 18,5 C 18,3 C 17,2 C 100 % 1007,0 hPa 0,0 l/m 0 min 0 min 144 W/m 19,3 km/h (3 Bft) 97,83 %
01.07.2020 12:08 18,6 C 18,3 C 16,7 C 99 % 1007,1 hPa 0,0 l/m 0 min 0 min 112 W/m 25,7 km/h (4 Bft) 94,68 %
01.07.2020 12:10 18,6 C 18,3 C 16,7 C 99 % 1007,1 hPa 0,0 l/m 0 min 0 min 105 W/m 19,3 km/h (3 Bft) 95,74 %
01.07.2020 12:12 18,6 C 18,3 C 16,7 C 99 % 1007,0 hPa 0,0 l/m 0 min 0 min 99 W/m 16,1 km/h (3 Bft) 93,62 %
01.07.2020 12:14 18,6 C 18,3 C 16,7 C 99 % 1007,0 hPa 0,0 l/m 0 min 0 min 95 W/m 12,9 km/h (3 Bft) 95,74 %
01.07.2020 12:16 18,6 C 17,8 C 16,7 C 99 % 1007,1 hPa 0,0 l/m 0 min 0 min 75 W/m 16,1 km/h (3 Bft) 95,74 %
01.07.2020 12:18 18,6 C 17,8 C 16,7 C 99 % 1007,0 hPa 0,0 l/m 0 min 0 min 58 W/m 16,1 km/h (3 Bft) 95,74 %
01.07.2020 12:20 18,6 C 17,8 C 16,7 C 99 % 1007,0 hPa 0,0 l/m 0 min 0 min 70 W/m 16,1 km/h (3 Bft) 95,74 %
01.07.2020 12:22 18,6 C 17,8 C 16,7 C 99 % 1007,1 hPa 0,0 l/m 0 min 0 min 92 W/m 22,5 km/h (4 Bft) 97,87 %
01.07.2020 12:24 18,6 C 18,3 C 16,7 C 99 % 1007,0 hPa 0,0 l/m 0 min 0 min 111 W/m 16,1 km/h (3 Bft) 95,74 %
01.07.2020 12:26 18,6 C 18,3 C 16,7 C 99 % 1007,0 hPa 0,0 l/m 0 min 0 min 118 W/m 19,3 km/h (3 Bft) 97,87 %
01.07.2020 12:30 18,6 C 18,3 C 16,7 C 99 % 1006,9 hPa 0,0 l/m 0 min 0 min 127 W/m 22,5 km/h (4 Bft) 100,00 %
01.07.2020 12:32 18,6 C 18,3 C 17,2 C 99 % 1007,0 hPa 0,0 l/m 0 min 0 min 144 W/m 16,1 km/h (3 Bft) 93,62 %
01.07.2020 12:34 18,7 C 18,9 C 17,2 C 99 % 1007,0 hPa 0,0 l/m 0 min 0 min 218 W/m 19,3 km/h (3 Bft) 97,87 %
01.07.2020 12:36 18,7 C 20,0 C 17,8 C 99 % 1006,9 hPa 0,0 l/m 0 min 0 min 366 W/m 16,1 km/h (3 Bft) 95,74 %
01.07.2020 12:38 18,8 C 21,1 C 17,8 C 99 % 1007,0 hPa 0,0 l/m 2 min 0 min 487 W/m 12,9 km/h (3 Bft) 97,83 %
01.07.2020 12:40 18,9 C 21,1 C 18,3 C 99 % 1007,0 hPa 0,0 l/m 2 min 0 min 478 W/m 16,1 km/h (3 Bft) 97,87 %
01.07.2020 12:42 19,0 C 20,6 C 17,8 C 99 % 1007,1 hPa 0,0 l/m 0 min 0 min 367 W/m 22,5 km/h (4 Bft) 97,87 %
01.07.2020 12:44 19,1 C 20,0 C 17,8 C 99 % 1007,0 hPa 0,0 l/m 0 min 0 min 294 W/m 25,7 km/h (4 Bft) 95,74 %
01.07.2020 12:46 19,2 C 20,0 C 17,8 C 99 % 1007,1 hPa 0,0 l/m 0 min 0 min 245 W/m 22,5 km/h (4 Bft) 97,87 %
01.07.2020 12:48 19,2 C 20,0 C 17,8 C 98 % 1007,1 hPa 0,0 l/m 0 min 0 min 270 W/m 25,7 km/h (4 Bft) 95,65 %
01.07.2020 12:50 19,3 C 20,0 C 17,8 C 98 % 1006,9 hPa 0,0 l/m 0 min 0 min 192 W/m 22,5 km/h (4 Bft) 97,87 %
01.07.2020 12:52 19,3 C 20,0 C 17,8 C 98 % 1007,0 hPa 0,0 l/m 0 min 0 min 192 W/m 12,9 km/h (3 Bft) 97,87 %
01.07.2020 12:54 19,3 C 19,4 C 17,8 C 98 % 1007,0 hPa 0,0 l/m 0 min 0 min 165 W/m 29,0 km/h (5 Bft) 95,74 %
01.07.2020 12:56 19,4 C 19,4 C 17,8 C 98 % 1007,1 hPa 0,0 l/m 0 min 0 min 130 W/m 25,7 km/h (4 Bft) 97,87 %
01.07.2020 12:58 19,4 C 19,4 C 17,2 C 97 % 1007,0 hPa 0,0 l/m 0 min 0 min 109 W/m 19,3 km/h (3 Bft) 97,87 %
01.07.2020 13:00 19,5 C 19,4 C 17,2 C 97 % 1007,0 hPa 0,0 l/m 0 min 0 min 87 W/m 16,1 km/h (3 Bft) 97,87 %
01.07.2020 13:02 19,6 C 18,9 C 17,2 C 96 % 1007,0 hPa 0,0 l/m 0 min 0 min 66 W/m 16,1 km/h (3 Bft) 97,83 %
01.07.2020 13:04 19,6 C 18,9 C 17,2 C 96 % 1007,0 hPa 0,0 l/m 0 min 0 min 67 W/m 19,3 km/h (3 Bft) 100,00 %
01.07.2020 13:06 19,6 C 18,9 C 17,2 C 96 % 1007,0 hPa 0,0 l/m 0 min 0 min 92 W/m 22,5 km/h (4 Bft) 100,00 %
01.07.2020 13:08 19,6 C 18,9 C 17,2 C 95 % 1007,1 hPa 0,0 l/m 0 min 0 min 96 W/m 29,0 km/h (5 Bft) 97,87 %
01.07.2020 13:10 19,6 C 19,4 C 17,2 C 95 % 1007,1 hPa 0,0 l/m 0 min 0 min 97 W/m 38,6 km/h (5 Bft) 97,87 %
01.07.2020 13:12 19,6 C 19,4 C 17,2 C 94 % 1007,1 hPa 0,0 l/m 0 min 0 min 175 W/m 22,5 km/h (4 Bft) 97,83 %
01.07.2020 13:14 19,6 C 20,0 C 17,2 C 94 % 1007,1 hPa 0,0 l/m 0 min 0 min 236 W/m 32,2 km/h (5 Bft) 100,00 %
01.07.2020 13:16 19,7 C 21,1 C 17,8 C 93 % 1007,0 hPa 0,0 l/m 0 min 0 min 354 W/m 19,3 km/h (3 Bft) 91,49 %
01.07.2020 13:18 19,7 C 21,1 C 17,8 C 93 % 1007,1 hPa 0,0 l/m 0 min 0 min 338 W/m 25,7 km/h (4 Bft) 97,87 %
01.07.2020 13:20 19,8 C 21,7 C 17,8 C 93 % 1007,0 hPa 0,0 l/m 0 min 0 min 367 W/m 22,5 km/h (4 Bft) 97,87 %
01.07.2020 13:22 19,9 C 22,2 C 17,8 C 93 % 1007,0 hPa 0,0 l/m 0 min 0 min 408 W/m 22,5 km/h (4 Bft) 89,36 %
01.07.2020 13:24 20,1 C 22,8 C 18,3 C 93 % 1007,0 hPa 0,0 l/m 2 min 0 min 475 W/m 25,7 km/h (4 Bft) 97,83 %
01.07.2020 13:26 20,2 C 22,8 C 18,3 C 93 % 1007,0 hPa 0,0 l/m 0 min 0 min 382 W/m 12,9 km/h (3 Bft) 97,87 %
01.07.2020 13:28 20,3 C 22,2 C 18,3 C 92 % 1007,0 hPa 0,0 l/m 0 min 0 min 234 W/m 16,1 km/h (3 Bft) 100,00 %
01.07.2020 13:30 20,3 C 21,1 C 17,8 C 92 % 1007,0 hPa 0,0 l/m 0 min 0 min 147 W/m 22,5 km/h (4 Bft) 97,87 %
01.07.2020 13:32 20,4 C 21,1 C 17,8 C 91 % 1007,0 hPa 0,0 l/m 0 min 0 min 144 W/m 19,3 km/h (3 Bft) 97,87 %
01.07.2020 13:34 20,4 C 20,6 C 17,8 C 91 % 1007,1 hPa 0,0 l/m 0 min 0 min 154 W/m 29,0 km/h (5 Bft) 97,87 %
01.07.2020 13:36 20,4 C 21,1 C 17,8 C 91 % 1007,0 hPa 0,0 l/m 0 min 0 min 203 W/m 29,0 km/h (5 Bft) 97,83 %
01.07.2020 13:38 20,5 C 21,1 C 17,8 C 90 % 1007,1 hPa 0,0 l/m 0 min 0 min 213 W/m 29,0 km/h (5 Bft) 95,74 %
01.07.2020 13:40 20,5 C 20,6 C 17,8 C 90 % 1007,0 hPa 0,0 l/m 0 min 0 min 162 W/m 41,8 km/h (6 Bft) 97,87 %
01.07.2020 13:42 20,6 C 20,6 C 17,8 C 90 % 1007,1 hPa 0,0 l/m 0 min 0 min 190 W/m 22,5 km/h (4 Bft) 97,87 %
01.07.2020 13:44 20,6 C 20,6 C 17,8 C 89 % 1007,0 hPa 0,0 l/m 0 min 0 min 167 W/m 19,3 km/h (3 Bft) 98,11 %
01.07.2020 13:46 20,6 C 20,6 C 17,8 C 89 % 1007,0 hPa 0,0 l/m 0 min 0 min 137 W/m 16,1 km/h (3 Bft) 97,83 %
01.07.2020 13:48 20,6 C 20,6 C 17,8 C 89 % 1007,0 hPa 0,0 l/m 0 min 0 min 104 W/m 25,7 km/h (4 Bft) 97,56 %
01.07.2020 13:50 20,6 C 20,6 C 17,8 C 89 % 1007,1 hPa 0,0 l/m 0 min 0 min 139 W/m 12,9 km/h (3 Bft) 97,87 %
01.07.2020 13:52 20,6 C 20,6 C 17,8 C 89 % 1007,0 hPa 0,0 l/m 0 min 0 min 165 W/m 19,3 km/h (3 Bft) 97,87 %
01.07.2020 13:54 20,6 C 20,6 C 17,8 C 89 % 1007,1 hPa 0,0 l/m 0 min 0 min 127 W/m 32,2 km/h (5 Bft) 97,87 %
01.07.2020 13:56 20,6 C 20,6 C 17,8 C 88 % 1007,0 hPa 0,0 l/m 0 min 0 min 148 W/m 29,0 km/h (5 Bft) 97,87 %
01.07.2020 13:58 20,6 C 20,6 C 17,8 C 88 % 1007,0 hPa 0,0 l/m 0 min 0 min 163 W/m 19,3 km/h (3 Bft) 97,83 %
01.07.2020 14:00 20,6 C 20,6 C 17,8 C 88 % 1007,1 hPa 0,0 l/m 0 min 0 min 117 W/m 35,4 km/h (5 Bft) 91,49 %
01.07.2020 14:02 20,6 C 20,6 C 17,8 C 88 % 1007,0 hPa 0,0 l/m 0 min 0 min 107 W/m 22,5 km/h (4 Bft) 98,15 %
01.07.2020 14:04 20,6 C 20,6 C 17,8 C 88 % 1007,0 hPa 0,0 l/m 0 min 0 min 167 W/m 19,3 km/h (3 Bft) 95,74 %
01.07.2020 14:06 20,6 C 21,1 C 17,8 C 87 % 1007,1 hPa 0,0 l/m 0 min 0 min 244 W/m 32,2 km/h (5 Bft) 95,74 %
01.07.2020 14:08 20,7 C 21,7 C 17,8 C 87 % 1007,0 hPa 0,0 l/m 0 min 0 min 345 W/m 19,3 km/h (3 Bft) 95,65 %
01.07.2020 14:10 20,7 C 21,7 C 17,8 C 87 % 1007,0 hPa 0,0 l/m 0 min 0 min 258 W/m 22,5 km/h (4 Bft) 95,74 %
01.07.2020 14:12 20,7 C 21,7 C 17,8 C 87 % 1007,1 hPa 0,0 l/m 0 min 0 min 265 W/m 41,8 km/h (6 Bft) 95,74 %
01.07.2020 14:14 20,8 C 21,7 C 18,3 C 87 % 1007,0 hPa 0,0 l/m 0 min 0 min 247 W/m 19,3 km/h (3 Bft) 95,74 %
01.07.2020 14:16 20,8 C 21,7 C 18,3 C 87 % 1007,0 hPa 0,0 l/m 0 min 0 min 252 W/m 29,0 km/h (5 Bft) 93,62 %
01.07.2020 14:18 20,9 C 21,7 C 18,3 C 86 % 1007,0 hPa 0,0 l/m 0 min 0 min 294 W/m 38,6 km/h (5 Bft) 95,74 %
01.07.2020 14:20 20,9 C 22,2 C 18,3 C 86 % 1006,9 hPa 0,0 l/m 0 min 0 min 301 W/m 29,0 km/h (5 Bft) 95,65 %
01.07.2020 14:22 21,1 C 22,2 C 18,3 C 86 % 1007,0 hPa 0,0 l/m 0 min 0 min 324 W/m 29,0 km/h (5 Bft) 87,23 %
01.07.2020 14:24 21,1 C 22,2 C 18,3 C 86 % 1007,0 hPa 0,0 l/m 0 min 0 min 258 W/m 25,7 km/h (4 Bft) 95,74 %
01.07.2020 14:26 21,1 C 21,7 C 18,3 C 86 % 1007,1 hPa 0,0 l/m 0 min 0 min 189 W/m 32,2 km/h (5 Bft) 91,49 %
01.07.2020 14:28 21,2 C 21,1 C 18,3 C 85 % 1007,0 hPa 0,0 l/m 0 min 0 min 170 W/m 25,7 km/h (4 Bft) 97,87 %
01.07.2020 14:30 21,2 C 21,1 C 18,3 C 85 % 1007,2 hPa 0,0 l/m 0 min 0 min 268 W/m 35,4 km/h (5 Bft) 93,62 %
01.07.2020 14:32 21,2 C 21,7 C 18,3 C 85 % 1007,1 hPa 0,0 l/m 0 min 0 min 280 W/m 19,3 km/h (3 Bft) 97,22 %
01.07.2020 14:34 21,2 C 21,7 C 18,3 C 85 % 1007,0 hPa 0,0 l/m 0 min 0 min 231 W/m 19,3 km/h (3 Bft) 93,48 %
01.07.2020 14:36 21,3 C 21,1 C 18,3 C 84 % 1007,1 hPa 0,0 l/m 0 min 0 min 208 W/m 38,6 km/h (5 Bft) 97,87 %
01.07.2020 14:38 21,3 C 21,1 C 18,3 C 84 % 1007,0 hPa 0,0 l/m 0 min 0 min 210 W/m 25,7 km/h (4 Bft) 96,61 %
01.07.2020 14:40 21,3 C 21,1 C 18,3 C 84 % 1007,0 hPa 0,0 l/m 0 min 0 min 183 W/m 16,1 km/h (3 Bft) 100,00 %
01.07.2020 14:42 21,3 C 21,1 C 18,3 C 84 % 1007,1 hPa 0,0 l/m 0 min 0 min 201 W/m 25,7 km/h (4 Bft) 93,62 %
01.07.2020 14:44 21,3 C 21,7 C 18,3 C 84 % 1007,0 hPa 0,0 l/m 0 min 0 min 274 W/m 19,3 km/h (3 Bft) 95,74 %
01.07.2020 14:46 21,3 C 21,7 C 18,9 C 84 % 1007,0 hPa 0,0 l/m 0 min 0 min 263 W/m 32,2 km/h (5 Bft) 97,83 %
01.07.2020 14:48 21,3 C 21,7 C 18,9 C 84 % 1007,0 hPa 0,0 l/m 0 min 0 min 237 W/m 32,2 km/h (5 Bft) 97,87 %
01.07.2020 14:50 21,4 C 21,1 C 18,9 C 84 % 1007,0 hPa 0,0 l/m 0 min 0 min 153 W/m 16,1 km/h (3 Bft) 97,87 %
01.07.2020 14:52 21,4 C 21,1 C 18,9 C 84 % 1007,0 hPa 0,0 l/m 0 min 0 min 168 W/m 41,8 km/h (6 Bft) 98,31 %
01.07.2020 14:54 21,4 C 21,1 C 18,9 C 84 % 1007,0 hPa 0,0 l/m 0 min 0 min 182 W/m 16,1 km/h (3 Bft) 100,00 %
01.07.2020 14:56 21,4 C 21,1 C 18,9 C 84 % 1007,0 hPa 0,0 l/m 0 min 0 min 165 W/m 22,5 km/h (4 Bft) 97,87 %
01.07.2020 14:58 21,4 C 21,7 C 18,9 C 84 % 1006,9 hPa 0,0 l/m 0 min 0 min 236 W/m 19,3 km/h (3 Bft) 100,00 %
01.07.2020 15:00 21,4 C 22,8 C 19,4 C 84 % 1006,8 hPa 0,0 l/m 0 min 0 min 355 W/m 16,1 km/h (3 Bft) 100,00 %
01.07.2020 15:02 21,4 C 23,3 C 20,0 C 84 % 1006,9 hPa 0,0 l/m 2 min 0 min 408 W/m 35,4 km/h (5 Bft) 91,49 %
01.07.2020 15:04 21,5 C 23,3 C 20,0 C 84 % 1006,9 hPa 0,0 l/m 0 min 0 min 362 W/m 25,7 km/h (4 Bft) 93,62 %
01.07.2020 15:06 21,6 C 23,3 C 20,0 C 84 % 1006,9 hPa 0,0 l/m 0 min 0 min 380 W/m 29,0 km/h (5 Bft) 95,74 %
01.07.2020 15:08 21,7 C 23,9 C 20,6 C 84 % 1006,9 hPa 0,0 l/m 0 min 0 min 380 W/m 16,1 km/h (3 Bft) 97,83 %
01.07.2020 15:10 21,8 C 23,9 C 20,6 C 84 % 1006,9 hPa 0,0 l/m 2 min 0 min 519 W/m 25,7 km/h (4 Bft) 93,62 %
01.07.2020 15:12 21,9 C 23,3 C 20,6 C 83 % 1006,9 hPa 0,0 l/m 0 min 0 min 332 W/m 19,3 km/h (3 Bft) 95,74 %
01.07.2020 15:14 22,0 C 23,3 C 20,6 C 83 % 1007,0 hPa 0,0 l/m 0 min 0 min 270 W/m 19,3 km/h (3 Bft) 93,62 %
01.07.2020 15:16 22,0 C 23,3 C 20,6 C 83 % 1006,9 hPa 0,0 l/m 0 min 0 min 300 W/m 25,7 km/h (4 Bft) 91,49 %
01.07.2020 15:18 22,1 C 22,8 C 20,6 C 82 % 1007,0 hPa 0,0 l/m 0 min 0 min 236 W/m 29,0 km/h (5 Bft) 89,36 %
01.07.2020 15:20 22,1 C 22,2 C 20,6 C 82 % 1006,9 hPa 0,0 l/m 0 min 0 min 202 W/m 38,6 km/h (5 Bft) 93,62 %
01.07.2020 15:22 22,1 C 21,7 C 20,6 C 82 % 1007,0 hPa 0,0 l/m 0 min 0 min 164 W/m 22,5 km/h (4 Bft) 89,13 %
01.07.2020 15:24 22,1 C 21,7 C 20,0 C 82 % 1007,0 hPa 0,0 l/m 0 min 0 min 144 W/m 22,5 km/h (4 Bft) 93,62 %
01.07.2020 15:26 22,1 C 22,2 C 20,0 C 82 % 1006,9 hPa 0,0 l/m 0 min 0 min 181 W/m 25,7 km/h (4 Bft) 93,62 %
01.07.2020 15:28 22,1 C 22,8 C 20,0 C 82 % 1006,9 hPa 0,0 l/m 0 min 0 min 279 W/m 22,5 km/h (4 Bft) 93,62 %
01.07.2020 15:30 22,1 C 23,3 C 20,6 C 82 % 1006,8 hPa 0,0 l/m 0 min 0 min 302 W/m 19,3 km/h (3 Bft) 95,74 %
01.07.2020 15:32 22,2 C 23,3 C 20,6 C 81 % 1006,9 hPa 0,0 l/m 0 min 0 min 340 W/m 35,4 km/h (5 Bft) 92,45 %
01.07.2020 15:34 22,2 C 22,8 C 20,6 C 81 % 1006,9 hPa 0,0 l/m 0 min 0 min 290 W/m 35,4 km/h (5 Bft) 93,62 %
01.07.2020 15:36 22,2 C 22,8 C 20,6 C 81 % 1006,8 hPa 0,0 l/m 0 min 0 min 252 W/m 22,5 km/h (4 Bft) 91,49 %
01.07.2020 15:38 22,2 C 22,2 C 20,6 C 81 % 1006,8 hPa 0,0 l/m 0 min 0 min 190 W/m 25,7 km/h (4 Bft) 89,58 %
01.07.2020 15:40 22,2 C 22,2 C 20,6 C 81 % 1006,9 hPa 0,0 l/m 0 min 0 min 197 W/m 19,3 km/h (3 Bft) 91,43 %
01.07.2020 15:42 22,3 C 22,8 C 20,0 C 81 % 1006,8 hPa 0,0 l/m 0 min 0 min 218 W/m 22,5 km/h (4 Bft) 87,23 %
01.07.2020 15:44 22,3 C 22,8 C 20,6 C 81 % 1006,9 hPa 0,0 l/m 0 min 0 min 314 W/m 29,0 km/h (5 Bft) 93,48 %
01.07.2020 15:46 22,3 C 22,8 C 20,6 C 81 % 1006,9 hPa 0,0 l/m 0 min 0 min 280 W/m 25,7 km/h (4 Bft) 86,00 %
01.07.2020 15:48 22,3 C 22,8 C 20,6 C 81 % 1006,7 hPa 0,0 l/m 0 min 0 min 281 W/m 12,9 km/h (3 Bft) 89,36 %
01.07.2020 15:50 22,3 C 22,8 C 20,6 C 82 % 1006,7 hPa 0,0 l/m 0 min 0 min 283 W/m 12,9 km/h (3 Bft) 74,47 %
01.07.2020 15:52 22,3 C 22,2 C 20,6 C 81 % 1006,8 hPa 0,0 l/m 0 min 0 min 177 W/m 22,5 km/h (4 Bft) 87,50 %
01.07.2020 15:54 22,3 C 22,2 C 20,6 C 80 % 1006,7 hPa 0,0 l/m 0 min 0 min 146 W/m 35,4 km/h (5 Bft) 95,65 %
01.07.2020 15:56 22,3 C 21,7 C 20,0 C 80 % 1006,7 hPa 0,0 l/m 0 min 0 min 93 W/m 16,1 km/h (3 Bft) 85,11 %
01.07.2020 15:58 22,3 C 21,7 C 20,0 C 80 % 1006,7 hPa 0,0 l/m 0 min 0 min 58 W/m 25,7 km/h (4 Bft) 85,11 %
01.07.2020 16:00 22,2 C 21,1 C 20,0 C 81 % 1006,8 hPa 0,0 l/m 0 min 2 min 34 W/m 25,7 km/h (4 Bft) 89,36 %
01.07.2020 16:02 22,2 C 20,0 C 19,4 C 82 % 1006,9 hPa 0,0 l/m 0 min 2 min 20 W/m 19,3 km/h (3 Bft) 95,83 %
01.07.2020 16:04 22,1 C 18,3 C 18,9 C 83 % 1007,2 hPa 0,4 l/m 0 min 2 min 16 W/m 9,7 km/h (2 Bft) 100,00 %
01.07.2020 16:06 21,9 C 17,8 C 17,8 C 85 % 1007,4 hPa 1,6 l/m 0 min 2 min 24 W/m 16,1 km/h (3 Bft) 97,83 %
01.07.2020 16:08 21,7 C 17,2 C 17,8 C 86 % 1007,7 hPa 2,0 l/m 0 min 2 min 35 W/m 12,9 km/h (3 Bft) 100,00 %
01.07.2020 16:10 21,5 C 17,8 C 17,2 C 87 % 1007,7 hPa 1,2 l/m 0 min 2 min 55 W/m 19,3 km/h (3 Bft) 100,00 %
01.07.2020 16:12 21,3 C 17,2 C 17,2 C 87 % 1007,5 hPa 2,6 l/m 0 min 2 min 62 W/m 25,7 km/h (4 Bft) 100,00 %
01.07.2020 16:14 21,1 C 17,2 C 17,2 C 88 % 1007,5 hPa 1,8 l/m 0 min 2 min 59 W/m 22,5 km/h (4 Bft) 100,00 %
01.07.2020 16:16 20,9 C 17,2 C 17,2 C 89 % 1007,4 hPa 0,6 l/m 0 min 2 min 67 W/m 22,5 km/h (4 Bft) 97,87 %
01.07.2020 16:18 20,8 C 17,8 C 17,2 C 89 % 1007,6 hPa 0,4 l/m 0 min 2 min 94 W/m 25,7 km/h (4 Bft) 100,00 %
01.07.2020 16:20 20,7 C 17,8 C 17,2 C 90 % 1007,5 hPa 0,2 l/m 0 min 2 min 103 W/m 16,1 km/h (3 Bft) 100,00 %
01.07.2020 16:22 20,6 C 18,3 C 17,2 C 91 % 1007,5 hPa 0,0 l/m 0 min 2 min 211 W/m 9,7 km/h (2 Bft) 97,87 %
01.07.2020 16:24 20,4 C 18,3 C 17,8 C 91 % 1007,5 hPa 0,0 l/m 2 min 0 min 359 W/m 16,1 km/h (3 Bft) 100,00 %
01.07.2020 16:26 20,4 C 18,9 C 17,8 C 92 % 1007,5 hPa 0,0 l/m 0 min 0 min 343 W/m 12,9 km/h (3 Bft) 97,87 %
01.07.2020 16:28 20,4 C 19,4 C 18,3 C 92 % 1007,5 hPa 0,0 l/m 0 min 0 min 319 W/m 12,9 km/h (3 Bft) 97,87 %
01.07.2020 16:30 20,4 C 19,4 C 18,3 C 93 % 1007,5 hPa 0,0 l/m 0 min 0 min 272 W/m 12,9 km/h (3 Bft) 97,83 %
01.07.2020 16:32 20,3 C 19,4 C 18,3 C 93 % 1007,5 hPa 0,0 l/m 0 min 0 min 235 W/m 16,1 km/h (3 Bft) 97,92 %
01.07.2020 16:34 20,3 C 19,4 C 18,3 C 94 % 1007,5 hPa 0,0 l/m 0 min 0 min 241 W/m 12,9 km/h (3 Bft) 100,00 %
01.07.2020 16:36 20,3 C 19,4 C 18,3 C 94 % 1007,5 hPa 0,0 l/m 0 min 0 min 285 W/m 6,4 km/h (2 Bft) 100,00 %
01.07.2020 16:38 20,3 C 19,4 C 18,3 C 94 % 1007,5 hPa 0,0 l/m 0 min 0 min 226 W/m 6,4 km/h (2 Bft) 97,87 %
01.07.2020 16:40 20,3 C 19,4 C 18,3 C 95 % 1007,6 hPa 0,0 l/m 0 min 0 min 168 W/m 19,3 km/h (3 Bft) 97,87 %
01.07.2020 16:42 20,3 C 19,4 C 18,3 C 95 % 1007,6 hPa 0,0 l/m 0 min 0 min 161 W/m 12,9 km/h (3 Bft) 91,30 %
01.07.2020 16:44 20,3 C 19,4 C 18,3 C 95 % 1007,5 hPa 0,0 l/m 0 min 0 min 224 W/m 9,7 km/h (2 Bft) 95,74 %
01.07.2020 16:46 20,3 C 19,4 C 18,3 C 95 % 1007,5 hPa 0,0 l/m 0 min 0 min 298 W/m 12,9 km/h (3 Bft) 95,74 %
01.07.2020 16:48 20,3 C 19,4 C 18,3 C 95 % 1007,5 hPa 0,0 l/m 0 min 0 min 285 W/m 9,7 km/h (2 Bft) 93,62 %
01.07.2020 16:50 20,3 C 19,4 C 18,3 C 95 % 1007,5 hPa 0,0 l/m 0 min 0 min 256 W/m 12,9 km/h (3 Bft) 95,74 %
01.07.2020 16:52 20,2 C 19,4 C 18,3 C 95 % 1007,6 hPa 0,0 l/m 0 min 0 min 177 W/m 6,4 km/h (2 Bft) 95,74 %
01.07.2020 16:54 20,2 C 19,4 C 18,3 C 95 % 1007,6 hPa 0,0 l/m 0 min 0 min 152 W/m 6,4 km/h (2 Bft) 95,65 %
01.07.2020 16:56 20,2 C 18,9 C 18,3 C 96 % 1007,6 hPa 0,0 l/m 0 min 0 min 131 W/m 6,4 km/h (2 Bft) 95,74 %
01.07.2020 16:58 20,2 C 18,9 C 18,3 C 96 % 1007,6 hPa 0,0 l/m 0 min 0 min 124 W/m 6,4 km/h (2 Bft) 95,74 %
01.07.2020 17:00 20,2 C 18,9 C 18,3 C 96 % 1007,6 hPa 0,0 l/m 0 min 0 min 113 W/m 25,7 km/h (4 Bft) 93,62 %
01.07.2020 17:02 20,2 C 18,9 C 17,8 C 96 % 1007,6 hPa 0,0 l/m 0 min 0 min 103 W/m 12,9 km/h (3 Bft) 97,14 %
01.07.2020 17:04 20,2 C 18,9 C 17,8 C 96 % 1007,5 hPa 0,0 l/m 0 min 0 min 116 W/m 12,9 km/h (3 Bft) 93,62 %
01.07.2020 17:06 20,1 C 18,9 C 18,3 C 96 % 1007,6 hPa 0,0 l/m 0 min 0 min 132 W/m 16,1 km/h (3 Bft) 96,15 %
01.07.2020 17:08 20,1 C 18,9 C 18,3 C 96 % 1007,6 hPa 0,0 l/m 0 min 0 min 120 W/m 6,4 km/h (2 Bft) 95,74 %
01.07.2020 17:10 20,1 C 18,9 C 17,8 C 96 % 1007,6 hPa 0,0 l/m 0 min 0 min 127 W/m 19,3 km/h (3 Bft) 95,12 %
01.07.2020 17:12 20,1 C 18,9 C 17,8 C 96 % 1007,5 hPa 0,0 l/m 0 min 0 min 171 W/m 6,4 km/h (2 Bft) 96,23 %
01.07.2020 17:14 20,1 C 20,6 C 18,3 C 96 % 1007,4 hPa 0,0 l/m 0 min 0 min 213 W/m 12,9 km/h (3 Bft) 95,74 %
01.07.2020 17:16 20,1 C 21,1 C 18,3 C 96 % 1007,4 hPa 0,0 l/m 0 min 0 min 213 W/m 12,9 km/h (3 Bft) 95,12 %
01.07.2020 17:18 20,2 C 21,1 C 18,3 C 97 % 1007,4 hPa 0,0 l/m 0 min 0 min 213 W/m 19,3 km/h (3 Bft) 95,74 %
01.07.2020 17:20 20,2 C 21,1 C 18,3 C 97 % 1007,3 hPa 0,0 l/m 2 min 0 min 308 W/m 12,9 km/h (3 Bft) 92,31 %
01.07.2020 17:22 20,3 C 21,1 C 18,3 C 97 % 1007,4 hPa 0,0 l/m 2 min 0 min 510 W/m 16,1 km/h (3 Bft) 95,83 %
01.07.2020 17:24 20,3 C 20,6 C 18,3 C 97 % 1007,3 hPa 0,0 l/m 2 min 0 min 758 W/m 12,9 km/h (3 Bft) 97,87 %
01.07.2020 17:26 20,3 C 20,0 C 18,3 C 97 % 1007,4 hPa 0,0 l/m 2 min 0 min 372 W/m 19,3 km/h (3 Bft) 97,87 %
01.07.2020 17:28 20,3 C 20,0 C 18,3 C 97 % 1007,3 hPa 0,0 l/m 0 min 0 min 256 W/m 19,3 km/h (3 Bft) 95,74 %
01.07.2020 17:30 20,3 C 20,0 C 18,3 C 97 % 1007,3 hPa 0,0 l/m 0 min 0 min 271 W/m 12,9 km/h (3 Bft) 97,83 %
01.07.2020 17:32 20,3 C 20,6 C 18,3 C 97 % 1007,3 hPa 0,0 l/m 0 min 0 min 260 W/m 19,3 km/h (3 Bft) 97,96 %
01.07.2020 17:34 20,3 C 20,6 C 18,3 C 97 % 1007,3 hPa 0,0 l/m 2 min 0 min 356 W/m 22,5 km/h (4 Bft) 97,92 %
01.07.2020 17:36 20,4 C 21,1 C 18,3 C 97 % 1007,3 hPa 0,0 l/m 2 min 0 min 334 W/m 12,9 km/h (3 Bft) 95,74 %
01.07.2020 17:38 20,4 C 21,7 C 18,9 C 97 % 1007,4 hPa 0,0 l/m 2 min 0 min 334 W/m 19,3 km/h (3 Bft) 97,92 %
01.07.2020 17:40 20,5 C 21,1 C 18,3 C 97 % 1007,4 hPa 0,0 l/m 2 min 0 min 401 W/m 22,5 km/h (4 Bft) 97,83 %
01.07.2020 17:42 20,5 C 20,6 C 18,3 C 97 % 1007,4 hPa 0,0 l/m 2 min 0 min 304 W/m 19,3 km/h (3 Bft) 97,92 %
01.07.2020 17:44 20,5 C 20,6 C 18,3 C 97 % 1007,3 hPa 0,0 l/m 2 min 0 min 322 W/m 19,3 km/h (3 Bft) 97,87 %
01.07.2020 17:46 20,6 C 20,0 C 18,3 C 97 % 1007,4 hPa 0,0 l/m 0 min 0 min 265 W/m 12,9 km/h (3 Bft) 95,83 %
01.07.2020 17:48 20,6 C 20,6 C 18,3 C 97 % 1007,3 hPa 0,0 l/m 0 min 0 min 237 W/m 16,1 km/h (3 Bft) 100,00 %
01.07.2020 17:50 20,5 C 20,0 C 18,3 C 97 % 1007,3 hPa 0,0 l/m 0 min 0 min 171 W/m 16,1 km/h (3 Bft) 100,00 %
01.07.2020 17:52 20,5 C 20,0 C 18,3 C 97 % 1007,4 hPa 0,0 l/m 0 min 0 min 139 W/m 16,1 km/h (3 Bft) 100,00 %
01.07.2020 17:54 20,5 C 19,4 C 18,3 C 97 % 1007,4 hPa 0,0 l/m 0 min 0 min 165 W/m 16,1 km/h (3 Bft) 100,00 %
01.07.2020 17:56 20,4 C 20,0 C 17,8 C 96 % 1007,2 hPa 0,0 l/m 0 min 0 min 210 W/m 16,1 km/h (3 Bft) 100,00 %
01.07.2020 17:58 20,4 C 21,1 C 18,3 C 96 % 1007,1 hPa 0,0 l/m 2 min 0 min 420 W/m 19,3 km/h (3 Bft) 97,87 %
01.07.2020 18:00 20,5 C 20,0 C 18,3 C 96 % 1007,2 hPa 0,0 l/m 2 min 0 min 417 W/m 16,1 km/h (3 Bft) 100,00 %
01.07.2020 18:02 20,5 C 20,0 C 18,3 C 96 % 1007,2 hPa 0,0 l/m 0 min 0 min 100 W/m 12,9 km/h (3 Bft) 100,00 %
01.07.2020 18:04 20,5 C 19,4 C 18,3 C 96 % 1007,2 hPa 0,0 l/m 0 min 0 min 123 W/m 6,4 km/h (2 Bft) 97,87 %
01.07.2020 18:08 20,6 C 19,4 C 17,8 C 95 % 1007,1 hPa 0,0 l/m 0 min 0 min 116 W/m 16,1 km/h (3 Bft) 98,94 %
01.07.2020 18:10 20,6 C 19,4 C 17,8 C 95 % 1007,1 hPa 0,0 l/m 0 min 0 min 134 W/m 6,4 km/h (2 Bft) 100,00 %
01.07.2020 18:12 20,6 C 19,4 C 18,3 C 95 % 1007,1 hPa 0,0 l/m 0 min 0 min 136 W/m 6,4 km/h (2 Bft) 100,00 %
01.07.2020 18:14 20,6 C 19,4 C 17,8 C 95 % 1007,2 hPa 0,0 l/m 0 min 0 min 113 W/m 6,4 km/h (2 Bft) 100,00 %
01.07.2020 18:16 20,6 C 19,4 C 17,8 C 95 % 1007,1 hPa 0,0 l/m 0 min 0 min 79 W/m 6,4 km/h (2 Bft) 100,00 %
01.07.2020 18:18 20,6 C 19,4 C 17,8 C 95 % 1007,1 hPa 0,0 l/m 0 min 0 min 66 W/m 6,4 km/h (2 Bft) 97,87 %
01.07.2020 18:20 20,6 C 18,9 C 17,8 C 94 % 1007,2 hPa 0,0 l/m 0 min 0 min 61 W/m 6,4 km/h (2 Bft) 97,87 %
01.07.2020 18:22 20,6 C 18,9 C 17,8 C 94 % 1007,1 hPa 0,0 l/m 0 min 0 min 46 W/m 6,4 km/h (2 Bft) 97,87 %
01.07.2020 18:24 20,6 C 18,9 C 17,8 C 94 % 1007,1 hPa 0,0 l/m 0 min 0 min 32 W/m 6,4 km/h (2 Bft) 95,65 %
01.07.2020 18:26 20,5 C 18,9 C 17,8 C 94 % 1007,2 hPa 0,0 l/m 0 min 0 min 36 W/m 9,7 km/h (2 Bft) 97,87 %
01.07.2020 18:28 20,5 C 18,9 C 17,8 C 94 % 1007,2 hPa 0,0 l/m 0 min 0 min 60 W/m 3,2 km/h (1 Bft) 97,87 %
01.07.2020 18:30 20,5 C 18,9 C 17,8 C 94 % 1007,1 hPa 0,0 l/m 0 min 0 min 50 W/m 9,7 km/h (2 Bft) 97,87 %
01.07.2020 18:32 20,5 C 18,9 C 17,8 C 94 % 1007,2 hPa 0,0 l/m 0 min 0 min 28 W/m 12,9 km/h (3 Bft) 97,30 %
01.07.2020 18:34 20,4 C 18,9 C 17,8 C 94 % 1007,1 hPa 0,0 l/m 0 min 0 min 20 W/m 6,4 km/h (2 Bft) 97,87 %
01.07.2020 18:36 20,4 C 18,9 C 17,8 C 93 % 1007,2 hPa 0,0 l/m 0 min 2 min 16 W/m 9,7 km/h (2 Bft) 97,87 %
01.07.2020 18:38 20,4 C 18,9 C 17,8 C 93 % 1007,1 hPa 0,0 l/m 0 min 2 min 15 W/m 12,9 km/h (3 Bft) 96,55 %
01.07.2020 18:40 20,4 C 18,3 C 17,8 C 93 % 1007,1 hPa 0,0 l/m 0 min 2 min 14 W/m 22,5 km/h (4 Bft) 100,00 %
01.07.2020 18:42 20,4 C 18,3 C 17,8 C 93 % 1007,2 hPa 0,0 l/m 0 min 2 min 16 W/m 3,2 km/h (1 Bft) 97,92 %
01.07.2020 18:44 20,3 C 18,3 C 17,8 C 94 % 1007,3 hPa 0,0 l/m 0 min 2 min 32 W/m 16,1 km/h (3 Bft) 95,74 %
01.07.2020 18:46 20,3 C 17,8 C 17,8 C 93 % 1007,3 hPa 0,0 l/m 0 min 2 min 53 W/m 9,7 km/h (2 Bft) 97,87 %
01.07.2020 18:48 20,2 C 17,8 C 17,2 C 93 % 1007,3 hPa 0,0 l/m 0 min 2 min 97 W/m 9,7 km/h (2 Bft) 95,74 %
01.07.2020 18:50 20,1 C 17,8 C 17,2 C 93 % 1007,3 hPa 0,0 l/m 0 min 2 min 89 W/m 12,9 km/h (3 Bft) 97,83 %
01.07.2020 18:52 20,0 C 17,8 C 17,2 C 93 % 1007,3 hPa 0,0 l/m 0 min 2 min 83 W/m 9,7 km/h (2 Bft) 97,92 %
01.07.2020 18:54 19,9 C 17,8 C 17,2 C 93 % 1007,3 hPa 0,0 l/m 0 min 2 min 81 W/m 6,4 km/h (2 Bft) 97,87 %
01.07.2020 18:56 19,9 C 17,2 C 17,2 C 93 % 1007,5 hPa 0,2 l/m 0 min 2 min 70 W/m 6,4 km/h (2 Bft) 97,87 %
01.07.2020 18:58 19,8 C 17,2 C 17,2 C 93 % 1007,5 hPa 0,0 l/m 0 min 2 min 61 W/m 9,7 km/h (2 Bft) 97,87 %
01.07.2020 19:00 19,7 C 17,2 C 17,2 C 93 % 1007,5 hPa 0,0 l/m 0 min 2 min 70 W/m 9,7 km/h (2 Bft) 93,62 %
01.07.2020 19:02 19,7 C 17,2 C 17,2 C 93 % 1007,5 hPa 0,2 l/m 0 min 2 min 78 W/m 6,4 km/h (2 Bft) 97,92 %
01.07.2020 19:04 19,6 C 16,7 C 17,2 C 93 % 1007,5 hPa 0,0 l/m 0 min 2 min 76 W/m 12,9 km/h (3 Bft) 97,87 %
01.07.2020 19:06 19,5 C 16,7 C 17,2 C 93 % 1007,5 hPa 0,2 l/m 0 min 2 min 72 W/m 6,4 km/h (2 Bft) 97,87 %
01.07.2020 19:08 19,4 C 16,7 C 16,7 C 93 % 1007,5 hPa 0,0 l/m 0 min 2 min 70 W/m 9,7 km/h (2 Bft) 97,87 %
01.07.2020 19:10 19,4 C 16,7 C 16,7 C 93 % 1007,6 hPa 0,0 l/m 0 min 2 min 76 W/m 3,2 km/h (1 Bft) 97,87 %
01.07.2020 19:12 19,3 C 16,7 C 16,7 C 93 % 1007,7 hPa 0,0 l/m 0 min 0 min 75 W/m 12,9 km/h (3 Bft) 97,83 %
01.07.2020 19:14 19,3 C 16,7 C 16,7 C 93 % 1007,6 hPa 0,0 l/m 0 min 0 min 75 W/m 12,9 km/h (3 Bft) 97,92 %
01.07.2020 19:16 19,2 C 16,7 C 16,7 C 93 % 1007,6 hPa 0,0 l/m 0 min 0 min 96 W/m 12,9 km/h (3 Bft) 97,87 %
01.07.2020 19:18 19,2 C 17,2 C 17,2 C 94 % 1007,6 hPa 0,0 l/m 0 min 2 min 108 W/m 3,2 km/h (1 Bft) 95,74 %
01.07.2020 19:20 19,2 C 17,2 C 16,7 C 94 % 1007,6 hPa 0,0 l/m 0 min 0 min 112 W/m 16,1 km/h (3 Bft) 97,87 %
01.07.2020 19:22 19,2 C 17,2 C 16,7 C 94 % 1007,5 hPa 0,0 l/m 0 min 0 min 117 W/m 16,1 km/h (3 Bft) 95,74 %
01.07.2020 19:24 19,1 C 17,8 C 16,7 C 94 % 1007,5 hPa 0,0 l/m 0 min 0 min 119 W/m 19,3 km/h (3 Bft) 97,83 %
01.07.2020 19:26 19,1 C 17,8 C 17,2 C 94 % 1007,5 hPa 0,0 l/m 0 min 0 min 142 W/m 12,9 km/h (3 Bft) 97,87 %
01.07.2020 19:28 19,1 C 17,8 C 17,2 C 95 % 1007,5 hPa 0,0 l/m 0 min 0 min 129 W/m 22,5 km/h (4 Bft) 97,87 %
01.07.2020 19:30 19,1 C 17,8 C 16,7 C 95 % 1007,4 hPa 0,0 l/m 0 min 0 min 118 W/m 16,1 km/h (3 Bft) 97,87 %
01.07.2020 19:32 19,1 C 17,8 C 16,7 C 95 % 1007,4 hPa 0,0 l/m 2 min 0 min 188 W/m 12,9 km/h (3 Bft) 95,92 %
01.07.2020 19:34 19,1 C 18,3 C 17,2 C 95 % 1007,3 hPa 0,0 l/m 2 min 0 min 270 W/m 9,7 km/h (2 Bft) 97,87 %
01.07.2020 19:36 19,1 C 18,3 C 17,2 C 95 % 1007,4 hPa 0,0 l/m 2 min 0 min 151 W/m 12,9 km/h (3 Bft) 95,65 %
01.07.2020 19:38 19,1 C 17,8 C 17,2 C 95 % 1007,5 hPa 0,0 l/m 0 min 0 min 115 W/m 16,1 km/h (3 Bft) 97,87 %
01.07.2020 19:40 19,1 C 17,8 C 16,7 C 95 % 1007,4 hPa 0,0 l/m 0 min 0 min 102 W/m 12,9 km/h (3 Bft) 97,87 %
01.07.2020 19:42 19,1 C 17,8 C 16,7 C 95 % 1007,4 hPa 0,0 l/m 0 min 0 min 94 W/m 6,4 km/h (2 Bft) 95,74 %
01.07.2020 19:44 19,0 C 17,8 C 16,7 C 95 % 1007,5 hPa 0,0 l/m 0 min 0 min 83 W/m 12,9 km/h (3 Bft) 95,74 %
01.07.2020 19:46 19,0 C 17,8 C 16,7 C 95 % 1007,4 hPa 0,0 l/m 0 min 0 min 83 W/m 12,9 km/h (3 Bft) 95,74 %
01.07.2020 19:48 18,9 C 17,8 C 16,7 C 95 % 1007,4 hPa 0,0 l/m 0 min 0 min 104 W/m 12,9 km/h (3 Bft) 95,65 %
01.07.2020 19:50 18,9 C 17,8 C 16,7 C 95 % 1007,4 hPa 0,0 l/m 0 min 0 min 104 W/m 12,9 km/h (3 Bft) 97,87 %
01.07.2020 19:52 18,9 C 17,8 C 16,7 C 95 % 1007,4 hPa 0,0 l/m 2 min 0 min 154 W/m 12,9 km/h (3 Bft) 93,62 %
01.07.2020 19:54 18,8 C 17,8 C 16,7 C 95 % 1007,3 hPa 0,0 l/m 2 min 0 min 133 W/m 9,7 km/h (2 Bft) 93,62 %
01.07.2020 19:56 18,8 C 17,8 C 16,7 C 95 % 1007,3 hPa 0,0 l/m 0 min 0 min 110 W/m 16,1 km/h (3 Bft) 95,74 %
01.07.2020 19:58 18,8 C 17,8 C 16,7 C 95 % 1007,4 hPa 0,0 l/m 0 min 0 min 89 W/m 12,9 km/h (3 Bft) 97,83 %
01.07.2020 20:00 18,8 C 17,8 C 16,7 C 95 % 1007,4 hPa 0,0 l/m 0 min 0 min 66 W/m 6,4 km/h (2 Bft) 93,62 %
01.07.2020 20:02 18,8 C 17,2 C 16,7 C 95 % 1007,4 hPa 0,0 l/m 0 min 0 min 60 W/m 9,7 km/h (2 Bft) 95,83 %
01.07.2020 20:04 18,8 C 17,2 C 16,7 C 95 % 1007,3 hPa 0,0 l/m 0 min 0 min 58 W/m 9,7 km/h (2 Bft) 97,87 %
01.07.2020 20:06 18,8 C 17,2 C 16,7 C 95 % 1007,4 hPa 0,0 l/m 0 min 0 min 59 W/m 6,4 km/h (2 Bft) 97,87 %
01.07.2020 20:08 18,8 C 17,2 C 16,7 C 95 % 1007,5 hPa 0,0 l/m 0 min 0 min 58 W/m 16,1 km/h (3 Bft) 95,74 %
01.07.2020 20:10 18,8 C 17,2 C 16,7 C 95 % 1007,5 hPa 0,0 l/m 0 min 0 min 58 W/m 16,1 km/h (3 Bft) 95,65 %
01.07.2020 20:12 18,8 C 17,2 C 16,7 C 95 % 1007,5 hPa 0,0 l/m 0 min 0 min 55 W/m 9,7 km/h (2 Bft) 95,74 %
01.07.2020 20:14 18,8 C 17,2 C 16,7 C 95 % 1007,5 hPa 0,0 l/m 0 min 0 min 51 W/m 9,7 km/h (2 Bft) 97,87 %
01.07.2020 20:16 18,8 C 17,2 C 16,7 C 95 % 1007,5 hPa 0,0 l/m 0 min 0 min 48 W/m 9,7 km/h (2 Bft) 97,87 %
01.07.2020 20:18 18,8 C 17,2 C 16,7 C 95 % 1007,6 hPa 0,0 l/m 0 min 0 min 47 W/m 6,4 km/h (2 Bft) 97,87 %
01.07.2020 20:20 18,8 C 17,2 C 16,7 C 95 % 1007,5 hPa 0,0 l/m 0 min 0 min 47 W/m 19,3 km/h (3 Bft) 97,87 %
01.07.2020 20:22 18,8 C 17,2 C 16,7 C 95 % 1007,5 hPa 0,0 l/m 0 min 0 min 47 W/m 6,4 km/h (2 Bft) 97,83 %
01.07.2020 20:24 18,8 C 17,2 C 16,7 C 95 % 1007,6 hPa 0,0 l/m 0 min 0 min 45 W/m 9,7 km/h (2 Bft) 95,74 %
01.07.2020 20:26 18,7 C 17,2 C 16,7 C 95 % 1007,6 hPa 0,0 l/m 0 min 0 min 43 W/m 6,4 km/h (2 Bft) 97,87 %
01.07.2020 20:28 18,7 C 17,2 C 16,7 C 95 % 1007,6 hPa 0,0 l/m 0 min 0 min 44 W/m 9,7 km/h (2 Bft) 97,87 %
01.07.2020 20:30 18,7 C 17,2 C 16,7 C 95 % 1007,6 hPa 0,0 l/m 0 min 0 min 44 W/m 19,3 km/h (3 Bft) 95,74 %
01.07.2020 20:32 18,7 C 17,2 C 16,7 C 95 % 1007,6 hPa 0,0 l/m 0 min 0 min 45 W/m 12,9 km/h (3 Bft) 97,87 %
01.07.2020 20:34 18,7 C 17,2 C 16,7 C 95 % 1007,6 hPa 0,0 l/m 0 min 0 min 42 W/m 12,9 km/h (3 Bft) 95,74 %
01.07.2020 20:36 18,7 C 17,2 C 16,7 C 96 % 1007,7 hPa 0,0 l/m 0 min 0 min 35 W/m 12,9 km/h (3 Bft) 97,87 %
01.07.2020 20:38 18,7 C 17,2 C 16,7 C 96 % 1007,6 hPa 0,0 l/m 0 min 0 min 36 W/m 12,9 km/h (3 Bft) 98,00 %
01.07.2020 20:40 18,7 C 17,2 C 16,7 C 95 % 1007,6 hPa 0,0 l/m 0 min 0 min 32 W/m 6,4 km/h (2 Bft) 97,87 %
01.07.2020 20:42 18,7 C 17,2 C 16,7 C 95 % 1007,7 hPa 0,0 l/m 0 min 0 min 32 W/m 9,7 km/h (2 Bft) 97,87 %
01.07.2020 20:44 18,7 C 17,2 C 16,7 C 95 % 1007,7 hPa 0,0 l/m 0 min 0 min 28 W/m 9,7 km/h (2 Bft) 97,83 %
01.07.2020 20:46 18,7 C 17,2 C 16,7 C 96 % 1007,8 hPa 0,0 l/m 0 min 0 min 22 W/m 6,4 km/h (2 Bft) 97,87 %
01.07.2020 20:48 18,7 C 17,2 C 16,7 C 96 % 1007,8 hPa 0,0 l/m 0 min 0 min 21 W/m 12,9 km/h (3 Bft) 100,00 %
01.07.2020 20:50 18,7 C 17,2 C 16,7 C 96 % 1007,9 hPa 0,0 l/m 0 min 0 min 22 W/m 6,4 km/h (2 Bft) 100,00 %
01.07.2020 20:52 18,7 C 17,2 C 16,7 C 96 % 1007,8 hPa 0,0 l/m 0 min 0 min 25 W/m 9,7 km/h (2 Bft) 97,87 %
01.07.2020 20:54 18,7 C 17,2 C 16,7 C 96 % 1007,8 hPa 0,0 l/m 0 min 0 min 35 W/m 6,4 km/h (2 Bft) 100,00 %
01.07.2020 20:56 18,7 C 17,2 C 16,7 C 96 % 1007,8 hPa 0,0 l/m 0 min 0 min 37 W/m 6,4 km/h (2 Bft) 97,83 %
01.07.2020 20:58 18,7 C 17,2 C 16,7 C 96 % 1007,9 hPa 0,0 l/m 0 min 0 min 35 W/m 0,0 km/h (0 Bft) 100,00 %
01.07.2020 21:00 18,7 C 17,2 C 16,7 C 96 % 1007,9 hPa 0,0 l/m 0 min 0 min 29 W/m 6,4 km/h (2 Bft) 97,87 %
01.07.2020 21:02 18,6 C 17,2 C 16,7 C 96 % 1007,9 hPa 0,0 l/m 0 min 0 min 26 W/m 9,7 km/h (2 Bft) 100,00 %
01.07.2020 21:04 18,6 C 17,2 C 16,7 C 96 % 1007,8 hPa 0,0 l/m 0 min 0 min 22 W/m 6,4 km/h (2 Bft) 100,00 %
01.07.2020 21:06 18,6 C 17,2 C 16,7 C 96 % 1007,8 hPa 0,0 l/m 0 min 0 min 21 W/m 6,4 km/h (2 Bft) 100,00 %
01.07.2020 21:08 18,6 C 17,2 C 16,7 C 96 % 1007,8 hPa 0,0 l/m 0 min 0 min 22 W/m 6,4 km/h (2 Bft) 100,00 %
01.07.2020 21:10 18,6 C 17,2 C 16,7 C 96 % 1007,8 hPa 0,0 l/m 0 min 0 min 25 W/m 12,9 km/h (3 Bft) 97,83 %
01.07.2020 21:12 18,6 C 17,2 C 16,7 C 96 % 1007,8 hPa 0,0 l/m 0 min 0 min 29 W/m 12,9 km/h (3 Bft) 100,00 %
01.07.2020 21:14 18,6 C 17,2 C 16,7 C 96 % 1007,8 hPa 0,0 l/m 0 min 0 min 32 W/m 3,2 km/h (1 Bft) 100,00 %
01.07.2020 21:16 18,6 C 17,2 C 16,7 C 96 % 1007,8 hPa 0,0 l/m 2 min 0 min 32 W/m 6,4 km/h (2 Bft) 100,00 %
01.07.2020 21:18 18,6 C 17,2 C 16,7 C 96 % 1007,8 hPa 0,0 l/m 0 min 0 min 27 W/m 3,2 km/h (1 Bft) 100,00 %
01.07.2020 21:20 18,6 C 17,2 C 16,7 C 96 % 1007,9 hPa 0,0 l/m 0 min 0 min 21 W/m 3,2 km/h (1 Bft) 100,00 %
01.07.2020 21:22 18,6 C 17,2 C 16,7 C 96 % 1007,9 hPa 0,0 l/m 0 min 0 min 21 W/m 0,0 km/h (0 Bft) 100,00 %
01.07.2020 21:24 18,5 C 17,2 C 16,7 C 96 % 1007,9 hPa 0,0 l/m 0 min 0 min 20 W/m 0,0 km/h (0 Bft) 100,00 %
01.07.2020 21:26 18,5 C 17,2 C 16,7 C 96 % 1008,0 hPa 0,0 l/m 0 min 0 min 19 W/m 3,2 km/h (1 Bft) 97,87 %
01.07.2020 21:28 18,5 C 17,2 C 16,7 C 96 % 1008,1 hPa 0,0 l/m 0 min 0 min 14 W/m 3,2 km/h (1 Bft) 100,00 %
01.07.2020 21:30 18,5 C 17,2 C 16,7 C 96 % 1008,2 hPa 0,0 l/m 0 min 0 min 15 W/m 12,9 km/h (3 Bft) 100,00 %
01.07.2020 21:32 18,5 C 17,2 C 16,7 C 96 % 1008,2 hPa 0,0 l/m 0 min 0 min 12 W/m 0,0 km/h (0 Bft) 64,58 %
01.07.2020 21:34 18,5 C 17,2 C 16,7 C 96 % 1008,1 hPa 0,0 l/m 0 min 0 min 14 W/m 0,0 km/h (0 Bft) 87,50 %
01.07.2020 21:36 18,4 C 17,2 C 16,7 C 96 % 1008,1 hPa 0,0 l/m 2 min 0 min 20 W/m 6,4 km/h (2 Bft) 100,00 %
01.07.2020 21:38 18,4 C 16,7 C 16,7 C 96 % 1008,2 hPa 0,0 l/m 0 min 0 min 16 W/m 6,4 km/h (2 Bft) 97,87 %
01.07.2020 21:40 18,4 C 16,7 C 16,7 C 96 % 1008,1 hPa 0,0 l/m 0 min 0 min 11 W/m 3,2 km/h (1 Bft) 97,96 %
01.07.2020 21:42 18,4 C 16,7 C 16,7 C 96 % 1008,1 hPa 0,0 l/m 0 min 0 min 11 W/m 9,7 km/h (2 Bft) 93,62 %
01.07.2020 21:44 18,4 C 16,7 C 16,1 C 96 % 1008,1 hPa 0,0 l/m 0 min 0 min 10 W/m 6,4 km/h (2 Bft) 97,87 %
01.07.2020 21:46 18,4 C 16,7 C 16,1 C 96 % 1008,2 hPa 0,0 l/m 0 min 0 min 7 W/m 3,2 km/h (1 Bft) 97,83 %
01.07.2020 21:48 18,4 C 16,7 C 16,1 C 96 % 1008,1 hPa 0,0 l/m 0 min 0 min 6 W/m 3,2 km/h (1 Bft) 97,87 %
01.07.2020 21:50 18,4 C 16,7 C 16,1 C 96 % 1008,3 hPa 0,0 l/m 0 min 0 min 3 W/m 0,0 km/h (0 Bft) 97,87 %
01.07.2020 21:52 18,3 C 16,7 C 16,1 C 96 % 1008,2 hPa 0,0 l/m 0 min 0 min 0 W/m 6,4 km/h (2 Bft) 97,87 %
01.07.2020 21:54 18,3 C 16,7 C 16,1 C 96 % 1008,2 hPa 0,0 l/m 0 min 0 min 0 W/m 3,2 km/h (1 Bft) 95,74 %
01.07.2020 21:56 18,3 C 16,7 C 16,1 C 96 % 1008,2 hPa 0,0 l/m 0 min 0 min 0 W/m 6,4 km/h (2 Bft) 97,83 %
01.07.2020 21:58 18,3 C 16,7 C 16,1 C 96 % 1008,3 hPa 0,0 l/m 0 min 0 min 0 W/m 3,2 km/h (1 Bft) 95,74 %
01.07.2020 22:00 18,3 C 16,7 C 16,1 C 96 % 1008,3 hPa 0,0 l/m 0 min 0 min 0 W/m 0,0 km/h (0 Bft) 95,74 %
01.07.2020 22:02 18,2 C 16,7 C 16,1 C 96 % 1008,3 hPa 0,0 l/m 0 min 0 min 0 W/m 0,0 km/h (0 Bft) 95,74 %
01.07.2020 22:04 18,2 C 16,7 C 16,1 C 96 % 1008,3 hPa 0,0 l/m 0 min 0 min 0 W/m 3,2 km/h (1 Bft) 93,62 %
01.07.2020 22:06 18,2 C 16,7 C 16,1 C 96 % 1008,3 hPa 0,0 l/m 0 min 0 min 0 W/m 3,2 km/h (1 Bft) 91,49 %
01.07.2020 22:08 18,2 C 16,7 C 16,1 C 96 % 1008,4 hPa 0,0 l/m 0 min 0 min 0 W/m 3,2 km/h (1 Bft) 95,65 %
01.07.2020 22:10 18,2 C 16,7 C 16,1 C 96 % 1008,4 hPa 0,0 l/m 0 min 0 min 0 W/m 3,2 km/h (1 Bft) 93,62 %
01.07.2020 22:12 18,1 C 16,7 C 16,1 C 96 % 1008,5 hPa 0,0 l/m 0 min 0 min 0 W/m 3,2 km/h (1 Bft) 91,49 %
01.07.2020 22:14 18,1 C 16,7 C 16,1 C 96 % 1008,5 hPa 0,0 l/m 0 min 0 min 0 W/m 6,4 km/h (2 Bft) 93,62 %
01.07.2020 22:16 18,1 C 16,7 C 16,1 C 96 % 1008,6 hPa 0,0 l/m 0 min 0 min 0 W/m 3,2 km/h (1 Bft) 85,11 %
01.07.2020 22:18 18,1 C 16,7 C 16,1 C 96 % 1008,6 hPa 0,0 l/m 0 min 0 min 0 W/m 0,0 km/h (0 Bft) 91,49 %
01.07.2020 22:20 18,1 C 16,7 C 16,1 C 97 % 1008,6 hPa 0,0 l/m 0 min 0 min 0 W/m 0,0 km/h (0 Bft) 95,65 %
01.07.2020 22:22 18,1 C 16,1 C 16,1 C 97 % 1008,5 hPa 0,0 l/m 0 min 0 min 0 W/m 3,2 km/h (1 Bft) 95,74 %
01.07.2020 22:24 18,0 C 16,1 C 16,1 C 96 % 1008,6 hPa 0,0 l/m 0 min 0 min 0 W/m 0,0 km/h (0 Bft) 95,74 %
01.07.2020 22:26 18,0 C 16,1 C 16,1 C 96 % 1008,6 hPa 0,0 l/m 0 min 0 min 0 W/m 0,0 km/h (0 Bft) 91,49 %
01.07.2020 22:28 18,0 C 16,1 C 16,1 C 96 % 1008,6 hPa 0,0 l/m 0 min 0 min 0 W/m 0,0 km/h (0 Bft) 93,62 %
01.07.2020 22:30 18,0 C 16,1 C 16,1 C 96 % 1008,7 hPa 0,0 l/m 0 min 0 min 0 W/m 0,0 km/h (0 Bft) 91,30 %
01.07.2020 22:32 17,9 C 16,1 C 16,1 C 96 % 1008,7 hPa 0,0 l/m 0 min 0 min 0 W/m 3,2 km/h (1 Bft) 79,25 %
01.07.2020 22:34 17,9 C 16,1 C 16,1 C 96 % 1008,7 hPa 0,0 l/m 0 min 0 min 0 W/m 0,0 km/h (0 Bft) 82,98 %
01.07.2020 22:36 17,9 C 16,1 C 16,1 C 96 % 1008,8 hPa 0,0 l/m 0 min 0 min 0 W/m 0,0 km/h (0 Bft) 89,36 %
01.07.2020 22:38 17,9 C 16,1 C 16,1 C 96 % 1008,7 hPa 0,0 l/m 0 min 0 min 0 W/m 0,0 km/h (0 Bft) 89,36 %
01.07.2020 22:40 17,9 C 16,1 C 16,1 C 96 % 1008,7 hPa 0,0 l/m 0 min 0 min 0 W/m 0,0 km/h (0 Bft) 94,74 %
01.07.2020 22:42 17,8 C 16,1 C 16,1 C 96 % 1008,7 hPa 0,0 l/m 0 min 0 min 0 W/m 0,0 km/h (0 Bft) 95,74 %
01.07.2020 22:44 17,8 C 16,1 C 16,1 C 96 % 1008,7 hPa 0,0 l/m 0 min 0 min 0 W/m 0,0 km/h (0 Bft) 97,87 %
01.07.2020 22:46 17,8 C 16,1 C 16,1 C 97 % 1008,7 hPa 0,0 l/m 0 min 0 min 0 W/m 0,0 km/h (0 Bft) 95,74 %
01.07.2020 22:48 17,8 C 16,1 C 16,1 C 97 % 1008,7 hPa 0,0 l/m 0 min 0 min 0 W/m 0,0 km/h (0 Bft) 97,87 %
01.07.2020 22:50 17,8 C 16,7 C 16,1 C 97 % 1008,7 hPa 0,0 l/m 0 min 0 min 0 W/m 3,2 km/h (1 Bft) 93,62 %
01.07.2020 22:52 17,8 C 16,7 C 16,1 C 97 % 1008,8 hPa 0,0 l/m 0 min 0 min 0 W/m 6,4 km/h (2 Bft) 97,87 %
01.07.2020 22:54 17,8 C 16,7 C 16,1 C 97 % 1008,8 hPa 0,0 l/m 0 min 0 min 0 W/m 6,4 km/h (2 Bft) 97,83 %
01.07.2020 22:56 17,8 C 16,7 C 16,1 C 97 % 1008,8 hPa 0,0 l/m 0 min 0 min 0 W/m 6,4 km/h (2 Bft) 93,62 %
01.07.2020 22:58 17,8 C 16,7 C 16,1 C 97 % 1008,8 hPa 0,0 l/m 0 min 0 min 0 W/m 3,2 km/h (1 Bft) 97,87 %
01.07.2020 23:00 17,8 C 16,1 C 16,1 C 97 % 1008,8 hPa 0,0 l/m 0 min 0 min 0 W/m 0,0 km/h (0 Bft) 95,74 %
01.07.2020 23:02 17,8 C 16,1 C 16,1 C 97 % 1008,9 hPa 0,0 l/m 0 min 0 min 0 W/m 0,0 km/h (0 Bft) 95,92 %
01.07.2020 23:04 17,8 C 16,1 C 15,6 C 97 % 1008,9 hPa 0,0 l/m 0 min 0 min 0 W/m 3,2 km/h (1 Bft) 97,87 %
01.07.2020 23:06 17,8 C 16,1 C 15,6 C 97 % 1008,8 hPa 0,0 l/m 0 min 0 min 0 W/m 0,0 km/h (0 Bft) 95,65 %
01.07.2020 23:08 17,7 C 16,1 C 15,6 C 97 % 1008,8 hPa 0,0 l/m 0 min 0 min 0 W/m 0,0 km/h (0 Bft) 95,74 %
01.07.2020 23:10 17,7 C 16,1 C 15,6 C 97 % 1008,8 hPa 0,0 l/m 0 min 0 min 0 W/m 0,0 km/h (0 Bft) 97,87 %
01.07.2020 23:12 17,7 C 16,1 C 15,6 C 97 % 1008,8 hPa 0,0 l/m 0 min 0 min 0 W/m 0,0 km/h (0 Bft) 97,87 %
01.07.2020 23:14 17,7 C 16,1 C 15,6 C 97 % 1008,8 hPa 0,0 l/m 0 min 0 min 0 W/m 0,0 km/h (0 Bft) 97,87 %
01.07.2020 23:16 17,7 C 16,1 C 15,6 C 97 % 1008,8 hPa 0,0 l/m 0 min 0 min 0 W/m 0,0 km/h (0 Bft) 97,87 %
01.07.2020 23:18 17,6 C 16,1 C 15,6 C 97 % 1008,8 hPa 0,0 l/m 0 min 0 min 0 W/m 0,0 km/h (0 Bft) 95,65 %
01.07.2020 23:20 17,6 C 16,1 C 15,6 C 97 % 1008,8 hPa 0,0 l/m 0 min 0 min 0 W/m 0,0 km/h (0 Bft) 91,49 %
01.07.2020 23:22 17,6 C 16,1 C 15,6 C 97 % 1008,8 hPa 0,0 l/m 0 min 0 min 0 W/m 0,0 km/h (0 Bft) 97,87 %
01.07.2020 23:24 17,6 C 16,1 C 15,6 C 97 % 1008,8 hPa 0,0 l/m 0 min 0 min 0 W/m 0,0 km/h (0 Bft) 95,74 %
01.07.2020 23:26 17,5 C 15,6 C 15,6 C 97 % 1008,8 hPa 0,0 l/m 0 min 0 min 0 W/m 0,0 km/h (0 Bft) 97,87 %
01.07.2020 23:28 17,5 C 15,6 C 15,6 C 97 % 1008,8 hPa 0,0 l/m 0 min 0 min 0 W/m 3,2 km/h (1 Bft) 97,87 %
01.07.2020 23:30 17,5 C 16,1 C 15,6 C 97 % 1008,8 hPa 0,0 l/m 0 min 0 min 0 W/m 3,2 km/h (1 Bft) 97,83 %
01.07.2020 23:32 17,4 C 15,6 C 15,6 C 97 % 1008,8 hPa 0,0 l/m 0 min 0 min 0 W/m 0,0 km/h (0 Bft) 93,62 %
01.07.2020 23:34 17,4 C 15,6 C 15,6 C 97 % 1008,8 hPa 0,0 l/m 0 min 0 min 0 W/m 0,0 km/h (0 Bft) 100,00 %
01.07.2020 23:36 17,4 C 15,6 C 15,6 C 97 % 1008,9 hPa 0,0 l/m 0 min 0 min 0 W/m 0,0 km/h (0 Bft) 100,00 %
01.07.2020 23:38 17,4 C 15,6 C 15,6 C 97 % 1008,9 hPa 0,0 l/m 0 min 0 min 0 W/m 0,0 km/h (0 Bft) 100,00 %
01.07.2020 23:40 17,3 C 15,6 C 15,0 C 97 % 1008,8 hPa 0,0 l/m 0 min 0 min 0 W/m 0,0 km/h (0 Bft) 97,87 %
01.07.2020 23:42 17,3 C 15,6 C 15,0 C 97 % 1008,8 hPa 0,0 l/m 0 min 0 min 0 W/m 0,0 km/h (0 Bft) 100,00 %
01.07.2020 23:44 17,3 C 15,6 C 15,0 C 97 % 1008,8 hPa 0,0 l/m 0 min 0 min 0 W/m 0,0 km/h (0 Bft) 100,00 %
01.07.2020 23:46 17,3 C 15,6 C 15,0 C 97 % 1008,9 hPa 0,0 l/m 0 min 0 min 0 W/m 3,2 km/h (1 Bft) 100,00 %
01.07.2020 23:48 17,3 C 15,6 C 15,0 C 97 % 1008,8 hPa 0,0 l/m 0 min 0 min 0 W/m 0,0 km/h (0 Bft) 97,56 %
01.07.2020 23:50 17,2 C 15,6 C 15,0 C 97 % 1008,9 hPa 0,0 l/m 0 min 0 min 0 W/m 0,0 km/h (0 Bft) 100,00 %
01.07.2020 23:52 17,2 C 15,6 C 15,0 C 97 % 1008,9 hPa 0,0 l/m 0 min 0 min 0 W/m 0,0 km/h (0 Bft) 100,00 %
01.07.2020 23:54 17,2 C 15,6 C 15,0 C 97 % 1008,9 hPa 0,0 l/m 0 min 0 min 0 W/m 6,4 km/h (2 Bft) 95,65 %
01.07.2020 23:56 17,2 C 15,6 C 15,0 C 97 % 1008,9 hPa 0,0 l/m 0 min 0 min 0 W/m 3,2 km/h (1 Bft) 97,87 %
01.07.2020 23:58 17,2 C 15,6 C 15,0 C 97 % 1009,0 hPa 0,0 l/m 0 min 0 min 0 W/m 6,4 km/h (2 Bft) 100,00 %
_ Min-Zeit 05:34 02:40 05:52 15:54 15:48 - - - - 02:14 21:32
Minimum _ 16,8 C 15,6 C 15,0 C 80 % 1006,7 hPa - - - - 0,0 km/h (0 Bft) 64,58 %
_ Max-Zeit 15:42 15:08 15:08 10:32 23:58 16:12 12:38 06:08 17:24 13:40 00:00
Maximum _ 22,3 C 23,9 C 20,6 C 100 % 1009,0 hPa 2,6 l/m 2 min 4 min 758 W/m 41,8 km/h
S-SO (6 Bft)
100,00 %
Durchschnitt _ 18,7 C 17,7 C 16,9 C 93 % 1007,5 hPa #22,2 l/m #50 min. #6:18 h 123 W/m 11,6 km/h (2 Bft) 96,87 %
© 2020 W. Hausmann